Time,TemperatureF,DewpointF,PressureIn,WindDirection,WindDirectionDegrees,WindSpeedMPH,WindSpeedGustMPH,Humidity,HourlyPrecipIn,Conditions,Clouds,dailyrainin,SolarRadiationWatts/m^2,SoftwareType,DateUTC
2013-08-02 00:00:00,63.7,61.0,29.75,SSW,199,0.0,6.0,91,0.03,,OVC050,0.04,0.00,VWS V14.01,2013-08-02 04:00:00,
2013-08-02 00:01:00,63.7,61.0,29.75,SSW,199,0.0,6.0,91,0.03,,OVC039,0.04,0.00,VWS V14.01,2013-08-02 04:01:00,
2013-08-02 00:02:00,63.7,61.0,29.75,SSW,199,0.0,6.0,91,0.03,,OVC039,0.04,0.00,VWS V14.01,2013-08-02 04:02:00,
2013-08-02 00:06:00,63.5,60.8,29.75,South,174,0.0,0.0,91,0.03,,OVC039,0.00,0.00,VWS V14.01,2013-08-02 04:06:00,
2013-08-02 00:07:00,63.5,60.8,29.75,South,174,0.0,0.0,91,0.03,,OVC039,0.00,0.00,VWS V14.01,2013-08-02 04:07:00,
2013-08-02 00:08:00,63.5,60.8,29.75,South,174,0.0,0.0,91,0.03,,OVC039,0.00,0.00,VWS V14.01,2013-08-02 04:08:00,
2013-08-02 00:09:00,63.5,60.8,29.75,SW,226,2.0,2.0,91,0.03,,OVC039,0.00,0.00,VWS V14.01,2013-08-02 04:09:00,
2013-08-02 00:11:00,63.5,61.1,29.75,South,179,0.0,3.0,92,0.03,,OVC039,0.00,0.00,VWS V14.01,2013-08-02 04:11:00,
2013-08-02 00:12:00,63.5,61.1,29.75,South,179,0.0,3.0,92,0.04,,OVC039,0.01,0.00,VWS V14.01,2013-08-02 04:12:00,
2013-08-02 00:13:00,63.5,61.1,29.75,South,178,0.0,3.0,92,0.04,,OVC039,0.01,0.00,VWS V14.01,2013-08-02 04:13:00,
2013-08-02 00:14:00,63.5,61.1,29.75,South,178,0.0,3.0,92,0.04,,OVC039,0.01,0.00,VWS V14.01,2013-08-02 04:14:00,
2013-08-02 00:16:00,63.4,61.0,29.75,NW,312,2.0,9.0,92,0.04,,OVC039,0.01,0.00,VWS V14.01,2013-08-02 04:16:00,
2013-08-02 00:19:00,63.4,61.0,29.75,SE,138,0.0,12.0,92,0.04,,OVC039,0.01,0.00,VWS V14.01,2013-08-02 04:19:00,
2013-08-02 00:22:00,63.4,61.3,29.75,West,261,0.0,12.0,93,0.07,,OVC039,0.04,0.00,VWS V14.01,2013-08-02 04:22:00,
2013-08-02 00:24:00,63.4,61.3,29.75,South,186,0.0,12.0,93,0.07,,OVC039,0.04,0.00,VWS V14.01,2013-08-02 04:24:00,
2013-08-02 00:25:00,63.2,61.2,29.75,SSE,168,0.0,12.0,93,0.07,,OVC039,0.04,0.00,VWS V14.01,2013-08-02 04:25:00,
2013-08-02 00:27:00,63.2,61.2,29.75,SSW,193,7.0,12.0,93,0.07,,OVC039,0.04,0.00,VWS V14.01,2013-08-02 04:27:00,
2013-08-02 00:29:00,63.2,61.2,29.75,East,88,0.0,12.0,93,0.07,,OVC039,0.04,0.00,VWS V14.01,2013-08-02 04:29:00,
2013-08-02 00:30:00,63.2,61.5,29.75,East,88,0.0,12.0,94,0.07,,OVC039,0.04,0.00,VWS V14.01,2013-08-02 04:30:00,
2013-08-02 00:32:00,63.2,61.5,29.75,South,179,0.0,0.0,94,0.06,,OVC039,0.04,0.00,VWS V14.01,2013-08-02 04:32:00,
2013-08-02 00:34:00,63.2,61.5,29.75,SSW,202,0.0,3.0,94,0.06,,OVC039,0.04,0.00,VWS V14.01,2013-08-02 04:34:00,
2013-08-02 00:35:00,63.2,61.5,29.75,SSW,202,0.0,3.0,94,0.06,,OVC039,0.04,0.00,VWS V14.01,2013-08-02 04:35:00,
2013-08-02 00:36:00,63.2,61.5,29.75,SSW,198,0.0,3.0,94,0.06,,OVC039,0.04,0.00,VWS V14.01,2013-08-02 04:36:00,
2013-08-02 00:37:00,63.1,61.3,29.75,South,189,0.0,3.0,94,0.06,,OVC039,0.04,0.00,VWS V14.01,2013-08-02 04:37:00,
2013-08-02 00:38:00,63.1,61.3,29.75,South,189,0.0,3.0,94,0.06,,OVC039,0.04,0.00,VWS V14.01,2013-08-02 04:38:00,
2013-08-02 00:41:00,63.1,61.3,29.75,SSW,203,0.0,6.0,94,0.06,,OVC039,0.04,0.00,VWS V14.01,2013-08-02 04:41:00,
2013-08-02 00:42:00,63.1,61.3,29.75,South,188,0.0,6.0,94,0.06,,OVC039,0.04,0.00,VWS V14.01,2013-08-02 04:42:00,
2013-08-02 00:43:00,63.1,61.7,29.75,South,184,0.0,6.0,95,0.06,,OVC039,0.04,0.00,VWS V14.01,2013-08-02 04:43:00,
2013-08-02 00:44:00,63.1,61.7,29.75,SW,217,0.0,6.0,95,0.06,,OVC039,0.04,0.00,VWS V14.01,2013-08-02 04:44:00,
2013-08-02 00:47:00,63.1,61.7,29.74,WSW,253,1.0,6.0,95,0.06,,OVC039,0.04,0.00,VWS V14.01,2013-08-02 04:47:00,
2013-08-02 00:48:00,63.1,61.7,29.74,WSW,253,0.0,6.0,95,0.07,,OVC039,0.05,0.00,VWS V14.01,2013-08-02 04:48:00,
2013-08-02 00:49:00,63.1,61.7,29.74,WSW,253,0.0,6.0,95,0.07,,OVC039,0.05,0.00,VWS V14.01,2013-08-02 04:49:00,
2013-08-02 00:53:00,63.1,61.7,29.74,South,184,0.0,6.0,95,0.07,,OVC039,0.05,0.00,VWS V14.01,2013-08-02 04:53:00,
2013-08-02 00:55:00,63.1,61.7,29.74,South,185,0.0,6.0,95,0.08,,OVC039,0.06,0.00,VWS V14.01,2013-08-02 04:55:00,
2013-08-02 00:58:00,63.1,61.7,29.74,SSW,206,0.0,6.0,95,0.08,,OVC039,0.06,0.00,VWS V14.01,2013-08-02 04:58:00,
2013-08-02 01:00:00,63.1,61.7,29.73,SSW,205,0.0,6.0,95,0.09,,OVC050,0.07,0.00,VWS V14.01,2013-08-02 05:00:00,
2013-08-02 01:01:00,63.1,61.7,29.74,SSW,203,0.0,6.0,95,0.09,,OVC034,0.07,0.00,VWS V14.01,2013-08-02 05:01:00,
2013-08-02 01:03:00,63.1,61.7,29.73,South,171,0.0,0.0,95,0.08,,OVC034,0.08,0.00,VWS V14.01,2013-08-02 05:03:00,
2013-08-02 01:04:00,63.1,61.7,29.73,South,171,0.0,0.0,95,0.08,,OVC034,0.08,0.00,VWS V14.01,2013-08-02 05:04:00,
2013-08-02 01:06:00,63.1,61.7,29.73,South,172,0.0,0.0,95,0.08,,OVC034,0.08,0.00,VWS V14.01,2013-08-02 05:06:00,
2013-08-02 01:08:00,63.1,61.7,29.73,South,178,0.0,0.0,95,0.08,,OVC034,0.08,0.00,VWS V14.01,2013-08-02 05:08:00,
2013-08-02 01:09:00,63.1,61.7,29.73,South,178,0.0,0.0,95,0.08,,OVC034,0.08,0.00,VWS V14.01,2013-08-02 05:09:00,
2013-08-02 01:11:00,63.1,61.7,29.73,South,178,0.0,0.0,95,0.08,,OVC034,0.08,0.00,VWS V14.01,2013-08-02 05:11:00,
2013-08-02 01:14:00,62.9,61.8,29.73,SW,229,0.0,1.0,96,0.08,,OVC034,0.08,0.00,VWS V14.01,2013-08-02 05:14:00,
2013-08-02 01:16:00,62.9,61.8,29.73,South,176,1.0,5.0,96,0.09,,OVC034,0.09,0.00,VWS V14.01,2013-08-02 05:16:00,
2013-08-02 01:19:00,62.9,61.8,29.73,SSW,198,0.0,5.0,96,0.09,,OVC034,0.09,0.00,VWS V14.01,2013-08-02 05:19:00,
2013-08-02 01:20:00,62.9,61.8,29.73,South,181,0.0,5.0,96,0.09,,OVC034,0.09,0.00,VWS V14.01,2013-08-02 05:20:00,
2013-08-02 01:22:00,62.9,61.8,29.73,South,181,0.0,5.0,96,0.09,,OVC034,0.09,0.00,VWS V14.01,2013-08-02 05:22:00,
2013-08-02 01:24:00,62.9,61.8,29.73,SW,232,0.0,5.0,96,0.09,,OVC034,0.09,0.00,VWS V14.01,2013-08-02 05:24:00,
2013-08-02 01:25:00,62.9,61.8,29.73,SW,230,0.0,5.0,96,0.09,,OVC034,0.09,0.00,VWS V14.01,2013-08-02 05:25:00,
2013-08-02 01:27:00,62.9,61.8,29.73,SSW,209,0.0,5.0,96,0.09,,OVC034,0.09,0.00,VWS V14.01,2013-08-02 05:27:00,
2013-08-02 01:29:00,62.9,61.8,29.73,SSW,209,0.0,5.0,96,0.09,,OVC034,0.09,0.00,VWS V14.01,2013-08-02 05:29:00,
2013-08-02 01:30:00,62.9,61.8,29.73,SSW,209,0.0,5.0,96,0.09,,OVC034,0.09,0.00,VWS V14.01,2013-08-02 05:30:00,
2013-08-02 01:32:00,62.9,61.8,29.72,SSW,209,0.0,0.0,96,0.05,,OVC034,0.09,0.00,VWS V14.01,2013-08-02 05:32:00,
2013-08-02 01:34:00,62.9,61.8,29.72,SSW,206,0.0,0.0,96,0.06,,OVC034,0.10,0.00,VWS V14.01,2013-08-02 05:34:00,
2013-08-02 01:35:00,62.9,61.8,29.72,SSW,206,0.0,0.0,96,0.06,,OVC034,0.10,0.00,VWS V14.01,2013-08-02 05:35:00,
2013-08-02 01:37:00,62.9,61.8,29.72,SSW,206,0.0,0.0,96,0.06,,OVC034,0.10,0.00,VWS V14.01,2013-08-02 05:37:00,
2013-08-02 01:40:00,62.9,61.8,29.72,SSW,212,0.0,0.0,96,0.06,,OVC034,0.10,0.00,VWS V14.01,2013-08-02 05:40:00,
2013-08-02 01:41:00,62.9,61.8,29.72,SSW,212,0.0,0.0,96,0.06,,OVC034,0.10,0.00,VWS V14.01,2013-08-02 05:41:00,
2013-08-02 01:43:00,62.9,61.8,29.72,SSW,212,0.0,0.0,96,0.06,,OVC034,0.10,0.00,VWS V14.01,2013-08-02 05:43:00,
2013-08-02 01:45:00,62.9,61.8,29.72,SSW,213,0.0,1.0,96,0.06,,OVC034,0.10,0.00,VWS V14.01,2013-08-02 05:45:00,
2013-08-02 01:46:00,62.9,61.8,29.72,SSW,213,0.0,1.0,96,0.06,,OVC034,0.10,0.00,VWS V14.01,2013-08-02 05:46:00,
2013-08-02 01:47:00,62.9,61.8,29.72,SW,233,0.0,6.0,96,0.07,,OVC034,0.11,0.00,VWS V14.01,2013-08-02 05:47:00,
2013-08-02 01:48:00,62.9,61.8,29.72,SSW,193,0.0,6.0,96,0.07,,OVC034,0.11,0.00,VWS V14.01,2013-08-02 05:48:00,
2013-08-02 01:51:00,62.9,61.8,29.72,SSW,193,0.0,6.0,96,0.07,,OVC034,0.11,0.00,VWS V14.01,2013-08-02 05:51:00,
2013-08-02 01:52:00,62.9,61.8,29.72,NNW,332,0.0,6.0,96,0.08,,OVC034,0.12,0.00,VWS V14.01,2013-08-02 05:52:00,
2013-08-02 01:53:00,62.9,61.8,29.72,SW,236,0.0,6.0,96,0.08,,OVC034,0.12,0.00,VWS V14.01,2013-08-02 05:53:00,
2013-08-02 01:54:00,62.9,61.8,29.72,SW,233,7.0,7.0,96,0.08,,OVC034,0.12,0.00,VWS V14.01,2013-08-02 05:54:00,
2013-08-02 01:56:00,62.9,61.8,29.72,SW,223,0.0,7.0,96,0.08,,OVC034,0.12,0.00,VWS V14.01,2013-08-02 05:56:00,
2013-08-02 01:57:00,62.9,61.8,29.72,SW,223,0.0,7.0,96,0.09,,OVC034,0.13,0.00,VWS V14.01,2013-08-02 05:57:00,
2013-08-02 01:58:00,62.9,61.8,29.72,NNE,20,1.0,7.0,96,0.09,,OVC034,0.13,0.00,VWS V14.01,2013-08-02 05:58:00,
2013-08-02 01:59:00,62.9,61.8,29.72,South,182,0.0,7.0,96,0.09,,OVC034,0.13,0.00,VWS V14.01,2013-08-02 05:59:00,
2013-08-02 02:00:00,62.9,61.8,29.71,WSW,237,2.0,7.0,96,0.10,,OVC050,0.14,0.00,VWS V14.01,2013-08-02 06:00:00,
2013-08-02 02:01:00,62.9,61.8,29.71,South,182,0.0,7.0,96,0.10,,OVC027,0.14,0.00,VWS V14.01,2013-08-02 06:01:00,
2013-08-02 02:02:00,62.9,61.8,29.71,WSW,237,2.0,7.0,96,0.10,,OVC027,0.14,0.00,VWS V14.01,2013-08-02 06:02:00,
2013-08-02 02:03:00,62.7,61.5,29.71,WSW,248,0.0,6.0,96,0.07,,OVC027,0.14,0.00,VWS V14.01,2013-08-02 06:03:00,
2013-08-02 02:04:00,62.7,61.5,29.71,WSW,248,0.0,6.0,96,0.07,,OVC027,0.14,0.00,VWS V14.01,2013-08-02 06:04:00,
2013-08-02 02:05:00,62.7,61.5,29.71,WSW,247,0.0,6.0,96,0.07,,OVC027,0.14,0.00,VWS V14.01,2013-08-02 06:05:00,
2013-08-02 02:06:00,62.7,61.5,29.71,SW,227,0.0,6.0,96,0.08,,OVC027,0.15,0.00,VWS V14.01,2013-08-02 06:06:00,
2013-08-02 02:07:00,62.7,61.5,29.71,SW,227,0.0,6.0,96,0.09,,OVC027,0.16,0.00,VWS V14.01,2013-08-02 06:07:00,
2013-08-02 02:08:00,62.7,61.5,29.71,SE,141,0.0,6.0,96,0.09,,OVC027,0.16,0.00,VWS V14.01,2013-08-02 06:08:00,
2013-08-02 02:09:00,62.7,61.5,29.71,SE,141,0.0,6.0,96,0.10,,OVC027,0.17,0.00,VWS V14.01,2013-08-02 06:09:00,
2013-08-02 02:10:00,62.7,61.5,29.71,SE,141,0.0,6.0,96,0.10,,OVC027,0.17,0.00,VWS V14.01,2013-08-02 06:10:00,
2013-08-02 02:11:00,62.7,61.5,29.71,SE,141,0.0,6.0,96,0.11,,OVC027,0.18,0.00,VWS V14.01,2013-08-02 06:11:00,
2013-08-02 02:12:00,62.7,61.5,29.71,SW,224,0.0,6.0,96,0.11,,OVC027,0.18,0.00,VWS V14.01,2013-08-02 06:12:00,
2013-08-02 02:13:00,62.7,61.5,29.71,SW,224,0.0,6.0,96,0.12,,OVC027,0.19,0.00,VWS V14.01,2013-08-02 06:13:00,
2013-08-02 02:14:00,62.7,61.5,29.71,SW,222,0.0,6.0,96,0.12,,OVC027,0.19,0.00,VWS V14.01,2013-08-02 06:14:00,
2013-08-02 02:15:00,62.7,61.5,29.71,SW,219,0.0,6.0,96,0.12,,OVC027,0.19,0.00,VWS V14.01,2013-08-02 06:15:00,
2013-08-02 02:17:00,62.7,61.5,29.70,SW,223,0.0,6.0,96,0.13,,OVC027,0.20,0.00,VWS V14.01,2013-08-02 06:17:00,
2013-08-02 02:19:00,62.7,61.5,29.70,SW,223,0.0,6.0,96,0.13,,OVC027,0.20,0.00,VWS V14.01,2013-08-02 06:19:00,
2013-08-02 02:20:00,62.7,61.5,29.70,SW,223,0.0,6.0,96,0.14,,OVC027,0.21,0.00,VWS V14.01,2013-08-02 06:20:00,
2013-08-02 02:22:00,62.7,61.5,29.70,SW,223,0.0,6.0,96,0.14,,OVC027,0.21,0.00,VWS V14.01,2013-08-02 06:22:00,
2013-08-02 02:23:00,62.7,61.5,29.70,SW,223,0.0,6.0,96,0.15,,OVC027,0.22,0.00,VWS V14.01,2013-08-02 06:23:00,
2013-08-02 02:24:00,62.7,61.5,29.70,South,172,0.0,6.0,96,0.15,,OVC027,0.22,0.00,VWS V14.01,2013-08-02 06:24:00,
2013-08-02 02:25:00,62.7,61.5,29.70,SSW,200,0.0,6.0,96,0.15,,OVC027,0.22,0.00,VWS V14.01,2013-08-02 06:25:00,
2013-08-02 02:26:00,62.7,61.5,29.70,SW,215,0.0,6.0,96,0.15,,OVC027,0.22,0.00,VWS V14.01,2013-08-02 06:26:00,
2013-08-02 02:28:00,62.7,61.5,29.70,SW,215,0.0,6.0,96,0.16,,OVC027,0.23,0.00,VWS V14.01,2013-08-02 06:28:00,
2013-08-02 02:29:00,62.7,61.5,29.70,SW,215,0.0,6.0,96,0.16,,OVC027,0.23,0.00,VWS V14.01,2013-08-02 06:29:00,
2013-08-02 02:30:00,62.7,61.5,29.70,SW,215,0.0,6.0,96,0.16,,OVC027,0.23,0.00,VWS V14.01,2013-08-02 06:30:00,
2013-08-02 02:31:00,62.7,61.5,29.70,SW,215,0.0,6.0,96,0.16,,OVC027,0.23,0.00,VWS V14.01,2013-08-02 06:31:00,
2013-08-02 02:34:00,62.7,61.5,29.70,SW,215,0.0,0.0,96,0.15,,OVC027,0.24,0.00,VWS V14.01,2013-08-02 06:34:00,
2013-08-02 02:35:00,62.7,61.5,29.70,SW,215,0.0,0.0,96,0.15,,OVC027,0.24,0.00,VWS V14.01,2013-08-02 06:35:00,
2013-08-02 02:36:00,62.7,61.5,29.70,SW,215,0.0,0.0,96,0.15,,OVC027,0.24,0.00,VWS V14.01,2013-08-02 06:36:00,
2013-08-02 02:37:00,62.7,61.5,29.70,SW,215,0.0,0.0,96,0.15,,OVC027,0.24,0.00,VWS V14.01,2013-08-02 06:37:00,
2013-08-02 02:39:00,62.7,61.5,29.70,SW,215,0.0,0.0,96,0.15,,OVC027,0.24,0.00,VWS V14.01,2013-08-02 06:39:00,
2013-08-02 02:40:00,62.7,61.5,29.70,SW,215,0.0,0.0,96,0.15,,OVC027,0.24,0.00,VWS V14.01,2013-08-02 06:40:00,
2013-08-02 02:41:00,62.7,61.5,29.70,SW,215,0.0,0.0,96,0.15,,OVC027,0.24,0.00,VWS V14.01,2013-08-02 06:41:00,
2013-08-02 02:42:00,62.7,61.5,29.70,SW,215,0.0,0.0,96,0.15,,OVC027,0.24,0.00,VWS V14.01,2013-08-02 06:42:00,
2013-08-02 02:45:00,62.7,61.5,29.70,SW,215,0.0,0.0,96,0.16,,OVC027,0.25,0.00,VWS V14.01,2013-08-02 06:45:00,
2013-08-02 02:47:00,62.7,61.5,29.70,SW,215,0.0,0.0,96,0.16,,OVC027,0.25,0.00,VWS V14.01,2013-08-02 06:47:00,
2013-08-02 02:50:00,62.7,61.5,29.70,SW,215,0.0,0.0,96,0.16,,OVC027,0.25,0.00,VWS V14.01,2013-08-02 06:50:00,
2013-08-02 02:52:00,62.7,61.5,29.70,SSW,213,0.0,0.0,96,0.16,,OVC027,0.25,0.00,VWS V14.01,2013-08-02 06:52:00,
2013-08-02 02:55:00,62.7,61.5,29.70,SW,215,0.0,0.0,96,0.17,,OVC027,0.26,0.00,VWS V14.01,2013-08-02 06:55:00,
2013-08-02 02:56:00,62.7,61.5,29.70,SSW,213,0.0,0.0,96,0.17,,OVC027,0.26,0.00,VWS V14.01,2013-08-02 06:56:00,
2013-08-02 02:57:00,62.7,61.5,29.70,SSW,213,0.0,0.0,96,0.17,,OVC027,0.26,0.00,VWS V14.01,2013-08-02 06:57:00,
2013-08-02 02:58:00,62.7,61.5,29.70,SW,215,0.0,0.0,96,0.17,,OVC027,0.26,0.00,VWS V14.01,2013-08-02 06:58:00,
2013-08-02 03:00:00,62.7,61.8,29.70,SSW,213,0.0,0.0,97,0.18,,OVC037,0.27,0.00,VWS V14.01,2013-08-02 07:00:00,
2013-08-02 03:01:00,62.7,61.5,29.70,SSW,213,0.0,0.0,96,0.18,,OVC037,0.27,0.00,VWS V14.01,2013-08-02 07:01:00,
2013-08-02 03:02:00,62.7,61.5,29.69,SSW,213,0.0,0.0,96,0.18,,OVC037,0.27,0.00,VWS V14.01,2013-08-02 07:02:00,
2013-08-02 03:03:00,62.7,61.5,29.69,SSW,213,0.0,0.0,96,0.14,,OVC037,0.28,0.00,VWS V14.01,2013-08-02 07:03:00,
2013-08-02 03:06:00,62.7,61.8,29.69,SW,215,0.0,0.0,97,0.14,,OVC037,0.28,0.00,VWS V14.01,2013-08-02 07:06:00,
2013-08-02 03:07:00,62.7,61.8,29.69,SW,220,0.0,0.0,97,0.14,,OVC037,0.28,0.00,VWS V14.01,2013-08-02 07:07:00,
2013-08-02 03:08:00,62.7,61.8,29.69,SSE,165,0.0,0.0,97,0.15,,OVC037,0.29,0.00,VWS V14.01,2013-08-02 07:08:00,
2013-08-02 03:11:00,62.7,61.8,29.69,South,175,0.0,0.0,97,0.15,,OVC037,0.29,0.00,VWS V14.01,2013-08-02 07:11:00,
2013-08-02 03:12:00,62.7,61.8,29.69,South,175,0.0,0.0,97,0.15,,OVC037,0.29,0.00,VWS V14.01,2013-08-02 07:12:00,
2013-08-02 03:13:00,62.7,61.8,29.69,South,175,0.0,0.0,97,0.15,,OVC037,0.29,0.00,VWS V14.01,2013-08-02 07:13:00,
2013-08-02 03:16:00,62.7,61.8,29.69,WSW,250,0.0,0.0,97,0.16,,OVC037,0.30,0.00,VWS V14.01,2013-08-02 07:16:00,
2013-08-02 03:17:00,62.7,61.8,29.69,WSW,250,0.0,0.0,97,0.16,,OVC037,0.30,0.00,VWS V14.01,2013-08-02 07:17:00,
2013-08-02 03:19:00,62.7,61.8,29.69,WSW,250,0.0,0.0,97,0.17,,OVC037,0.31,0.00,VWS V14.01,2013-08-02 07:19:00,
2013-08-02 03:22:00,62.7,61.8,29.69,SSW,209,0.0,0.0,97,0.17,,OVC037,0.31,0.00,VWS V14.01,2013-08-02 07:22:00,
2013-08-02 03:24:00,62.7,61.8,29.69,SSW,200,0.0,0.0,97,0.18,,OVC037,0.32,0.00,VWS V14.01,2013-08-02 07:24:00,
2013-08-02 03:27:00,62.7,61.8,29.69,SW,220,0.0,1.0,97,0.19,,OVC037,0.33,0.00,VWS V14.01,2013-08-02 07:27:00,
2013-08-02 03:29:00,62.9,62.0,29.69,South,172,0.0,1.0,97,0.19,,OVC037,0.33,0.00,VWS V14.01,2013-08-02 07:29:00,
2013-08-02 03:30:00,62.9,62.0,29.69,South,172,0.0,1.0,97,0.20,,OVC037,0.34,0.00,VWS V14.01,2013-08-02 07:30:00,
2013-08-02 03:32:00,62.9,62.0,29.69,South,172,0.0,0.0,97,0.11,,OVC037,0.34,0.00,VWS V14.01,2013-08-02 07:32:00,
2013-08-02 03:33:00,62.9,62.0,29.69,South,172,0.0,0.0,97,0.11,,OVC037,0.34,0.00,VWS V14.01,2013-08-02 07:33:00,
2013-08-02 03:35:00,62.9,62.0,29.69,South,172,0.0,0.0,97,0.12,,OVC037,0.35,0.00,VWS V14.01,2013-08-02 07:35:00,
2013-08-02 03:36:00,62.9,62.0,29.69,South,176,0.0,0.0,97,0.12,,OVC037,0.35,0.00,VWS V14.01,2013-08-02 07:36:00,
2013-08-02 03:38:00,62.9,62.0,29.69,South,176,0.0,0.0,97,0.13,,OVC037,0.36,0.00,VWS V14.01,2013-08-02 07:38:00,
2013-08-02 03:40:00,62.9,62.0,29.69,South,179,0.0,0.0,97,0.13,,OVC037,0.36,0.00,VWS V14.01,2013-08-02 07:40:00,
2013-08-02 03:41:00,62.9,62.0,29.69,SSW,193,0.0,0.0,97,0.14,,OVC037,0.37,0.00,VWS V14.01,2013-08-02 07:41:00,
2013-08-02 03:43:00,62.9,62.0,29.69,SSW,193,0.0,0.0,97,0.14,,OVC037,0.37,0.00,VWS V14.01,2013-08-02 07:43:00,
2013-08-02 03:44:00,62.9,62.0,29.69,SSW,193,0.0,0.0,97,0.14,,OVC037,0.37,0.00,VWS V14.01,2013-08-02 07:44:00,
2013-08-02 03:45:00,62.9,62.0,29.69,SSW,193,0.0,0.0,97,0.14,,OVC037,0.37,0.00,VWS V14.01,2013-08-02 07:45:00,
2013-08-02 03:46:00,62.9,62.0,29.68,South,191,0.0,0.0,97,0.14,,OVC037,0.37,0.00,VWS V14.01,2013-08-02 07:46:00,
2013-08-02 03:48:00,62.9,62.0,29.68,South,191,0.0,0.0,97,0.15,,OVC037,0.38,0.00,VWS V14.01,2013-08-02 07:48:00,
2013-08-02 03:49:00,62.9,62.0,29.68,South,191,0.0,0.0,97,0.15,,OVC037,0.38,0.00,VWS V14.01,2013-08-02 07:49:00,
2013-08-02 03:51:00,62.9,62.0,29.68,South,191,0.0,0.0,97,0.16,,OVC037,0.39,0.00,VWS V14.01,2013-08-02 07:51:00,
2013-08-02 03:52:00,62.9,62.0,29.68,South,191,0.0,0.0,97,0.16,,OVC037,0.39,0.00,VWS V14.01,2013-08-02 07:52:00,
2013-08-02 03:53:00,62.9,62.0,29.68,South,191,0.0,0.0,97,0.16,,OVC037,0.39,0.00,VWS V14.01,2013-08-02 07:53:00,
2013-08-02 03:54:00,62.9,62.0,29.68,South,191,0.0,0.0,97,0.16,,OVC037,0.39,0.00,VWS V14.01,2013-08-02 07:54:00,
2013-08-02 03:57:00,62.9,62.0,29.68,SSE,152,0.0,2.0,97,0.18,,OVC037,0.41,0.00,VWS V14.01,2013-08-02 07:57:00,
2013-08-02 03:58:00,62.9,62.0,29.68,SE,138,0.0,2.0,97,0.18,,OVC037,0.41,0.00,VWS V14.01,2013-08-02 07:58:00,
2013-08-02 03:59:00,62.9,62.0,29.68,ESE,102,0.0,2.0,97,0.19,,OVC037,0.42,0.00,VWS V14.01,2013-08-02 07:59:00,
2013-08-02 04:00:00,62.9,62.0,29.69,ESE,116,0.0,2.0,97,0.19,,OVC050,0.42,0.00,VWS V14.01,2013-08-02 08:00:00,
2013-08-02 04:02:00,62.9,62.0,29.69,ESE,123,0.0,0.0,97,0.16,,OVC055,0.43,0.00,VWS V14.01,2013-08-02 08:02:00,
2013-08-02 04:03:00,62.9,62.0,29.69,ESE,123,0.0,0.0,97,0.16,,OVC055,0.43,0.00,VWS V14.01,2013-08-02 08:03:00,
2013-08-02 04:04:00,62.7,61.8,29.69,ESE,123,0.0,0.0,97,0.16,,OVC055,0.43,0.00,VWS V14.01,2013-08-02 08:04:00,
2013-08-02 04:05:00,62.7,61.8,29.69,ESE,123,0.0,0.0,97,0.16,,OVC055,0.43,0.00,VWS V14.01,2013-08-02 08:05:00,
2013-08-02 04:07:00,62.7,61.8,29.69,SE,133,0.0,2.0,97,0.17,,OVC055,0.44,0.00,VWS V14.01,2013-08-02 08:07:00,
2013-08-02 04:08:00,62.7,61.8,29.69,SE,133,0.0,2.0,97,0.17,,OVC055,0.44,0.00,VWS V14.01,2013-08-02 08:08:00,
2013-08-02 04:09:00,62.7,61.8,29.69,SSE,147,6.0,8.0,97,0.17,,OVC055,0.44,0.00,VWS V14.01,2013-08-02 08:09:00,
2013-08-02 04:10:00,62.7,61.8,29.69,SE,138,0.0,8.0,97,0.17,,OVC055,0.44,0.00,VWS V14.01,2013-08-02 08:10:00,
2013-08-02 04:13:00,62.7,61.8,29.69,South,178,0.0,8.0,97,0.17,,OVC055,0.44,0.00,VWS V14.01,2013-08-02 08:13:00,
2013-08-02 04:15:00,62.7,61.8,29.69,South,176,0.0,8.0,97,0.18,,OVC055,0.45,0.00,VWS V14.01,2013-08-02 08:15:00,
2013-08-02 04:16:00,62.7,61.8,29.69,South,176,0.0,8.0,97,0.18,,OVC055,0.45,0.00,VWS V14.01,2013-08-02 08:16:00,
2013-08-02 04:18:00,62.7,61.8,29.69,SSE,167,0.0,8.0,97,0.18,,OVC055,0.45,0.00,VWS V14.01,2013-08-02 08:18:00,
2013-08-02 04:20:00,62.7,61.8,29.69,SSE,167,0.0,8.0,97,0.18,,OVC055,0.45,0.00,VWS V14.01,2013-08-02 08:20:00,
2013-08-02 04:22:00,62.7,61.8,29.69,SW,223,0.0,8.0,97,0.18,,OVC055,0.45,0.00,VWS V14.01,2013-08-02 08:22:00,
2013-08-02 04:24:00,62.7,61.8,29.69,SE,130,0.0,8.0,97,0.18,,OVC055,0.45,0.00,VWS V14.01,2013-08-02 08:24:00,
2013-08-02 04:25:00,62.7,61.8,29.69,SE,130,0.0,8.0,97,0.19,,OVC055,0.46,0.00,VWS V14.01,2013-08-02 08:25:00,
2013-08-02 04:27:00,62.7,61.8,29.69,SE,140,0.0,8.0,97,0.19,,OVC055,0.46,0.00,VWS V14.01,2013-08-02 08:27:00,
2013-08-02 04:29:00,62.6,61.7,29.69,SE,140,0.0,8.0,97,0.19,,OVC055,0.46,0.00,VWS V14.01,2013-08-02 08:29:00,
2013-08-02 04:30:00,62.6,61.7,29.69,SSW,193,0.0,8.0,97,0.19,,OVC055,0.46,0.00,VWS V14.01,2013-08-02 08:30:00,
2013-08-02 04:31:00,62.6,61.7,29.69,SSW,193,0.0,8.0,97,0.19,,OVC055,0.46,0.00,VWS V14.01,2013-08-02 08:31:00,
2013-08-02 04:34:00,62.6,61.7,29.69,SW,229,0.0,0.0,97,0.13,,OVC055,0.47,0.00,VWS V14.01,2013-08-02 08:34:00,
2013-08-02 04:36:00,62.6,61.7,29.69,SW,219,0.0,4.0,97,0.13,,OVC055,0.47,0.00,VWS V14.01,2013-08-02 08:36:00,
2013-08-02 04:39:00,62.6,61.7,29.69,SW,219,0.0,4.0,97,0.13,,OVC055,0.47,0.00,VWS V14.01,2013-08-02 08:39:00,
2013-08-02 04:40:00,62.6,61.7,29.69,SSE,157,0.0,4.0,97,0.13,,OVC055,0.47,0.00,VWS V14.01,2013-08-02 08:40:00,
2013-08-02 04:41:00,62.6,61.7,29.69,SSE,157,0.0,4.0,97,0.14,,OVC055,0.48,0.00,VWS V14.01,2013-08-02 08:41:00,
2013-08-02 04:42:00,62.6,61.7,29.69,SSW,192,0.0,4.0,97,0.14,,OVC055,0.48,0.00,VWS V14.01,2013-08-02 08:42:00,
2013-08-02 04:44:00,62.6,61.7,29.69,SSW,208,0.0,4.0,97,0.14,,OVC055,0.48,0.00,VWS V14.01,2013-08-02 08:44:00,
2013-08-02 04:45:00,62.6,61.7,29.69,SSW,208,0.0,4.0,97,0.14,,OVC055,0.48,0.00,VWS V14.01,2013-08-02 08:45:00,
2013-08-02 04:46:00,62.6,61.7,29.69,WSW,239,0.0,4.0,97,0.14,,OVC055,0.48,0.00,VWS V14.01,2013-08-02 08:46:00,
2013-08-02 04:47:00,62.6,61.7,29.69,WSW,239,0.0,4.0,97,0.14,,OVC055,0.48,0.00,VWS V14.01,2013-08-02 08:47:00,
2013-08-02 04:49:00,62.6,61.7,29.69,WSW,239,0.0,4.0,97,0.14,,OVC055,0.48,0.00,VWS V14.01,2013-08-02 08:49:00,
2013-08-02 04:50:00,62.6,61.7,29.69,WSW,239,0.0,4.0,97,0.14,,OVC055,0.48,0.00,VWS V14.01,2013-08-02 08:50:00,
2013-08-02 04:52:00,62.6,61.7,29.69,ESE,109,0.0,4.0,97,0.14,,OVC055,0.48,0.00,VWS V14.01,2013-08-02 08:52:00,
2013-08-02 04:53:00,62.6,61.7,29.69,ESE,114,0.0,4.0,97,0.15,,OVC055,0.49,0.00,VWS V14.01,2013-08-02 08:53:00,
2013-08-02 04:54:00,62.6,61.7,29.69,South,176,0.0,4.0,97,0.15,,OVC055,0.49,0.00,VWS V14.01,2013-08-02 08:54:00,
2013-08-02 04:55:00,62.6,61.7,29.69,South,176,0.0,4.0,97,0.15,,OVC055,0.49,0.00,VWS V14.01,2013-08-02 08:55:00,
2013-08-02 04:57:00,62.6,61.7,29.69,South,176,0.0,4.0,97,0.15,,OVC055,0.49,0.00,VWS V14.01,2013-08-02 08:57:00,
2013-08-02 04:58:00,62.6,61.7,29.69,South,176,0.0,4.0,97,0.15,,OVC055,0.49,0.00,VWS V14.01,2013-08-02 08:58:00,
2013-08-02 04:59:00,62.6,61.7,29.69,South,176,0.0,4.0,97,0.15,,OVC055,0.49,0.00,VWS V14.01,2013-08-02 08:59:00,
2013-08-02 05:00:00,62.7,61.8,29.69,SSW,210,0.0,4.0,97,0.15,,OVC050,0.49,0.00,VWS V14.01,2013-08-02 09:00:00,
2013-08-02 05:01:00,62.6,61.7,29.69,SW,215,0.0,4.0,97,0.15,,OVC012,0.49,0.00,VWS V14.01,2013-08-02 09:01:00,
2013-08-02 05:02:00,62.7,61.8,29.69,SSE,161,0.0,0.0,97,0.07,,OVC012,0.49,0.00,VWS V14.01,2013-08-02 09:02:00,
2013-08-02 05:03:00,62.7,61.8,29.69,South,169,0.0,0.0,97,0.07,,OVC012,0.49,0.00,VWS V14.01,2013-08-02 09:03:00,
2013-08-02 05:05:00,62.7,61.8,29.69,South,181,0.0,0.0,97,0.07,,OVC012,0.49,0.00,VWS V14.01,2013-08-02 09:05:00,
2013-08-02 05:06:00,62.7,61.8,29.69,South,181,0.0,0.0,97,0.07,,OVC012,0.49,0.00,VWS V14.01,2013-08-02 09:06:00,
2013-08-02 05:09:00,62.7,61.8,29.69,SSW,206,0.0,0.0,97,0.07,,OVC012,0.49,0.00,VWS V14.01,2013-08-02 09:09:00,
2013-08-02 05:10:00,62.7,61.8,29.69,SSW,209,0.0,0.0,97,0.07,,OVC012,0.49,0.00,VWS V14.01,2013-08-02 09:10:00,
2013-08-02 05:11:00,62.7,61.8,29.69,SSW,209,0.0,0.0,97,0.07,,OVC012,0.49,0.00,VWS V14.01,2013-08-02 09:11:00,
2013-08-02 05:13:00,62.7,61.8,29.69,SSW,209,0.0,0.0,97,0.07,,OVC012,0.49,0.00,VWS V14.01,2013-08-02 09:13:00,
2013-08-02 05:14:00,62.7,61.8,29.69,SSW,210,0.0,0.0,97,0.07,,OVC012,0.49,0.00,VWS V14.01,2013-08-02 09:14:00,
2013-08-02 05:16:00,62.7,61.8,29.69,SW,219,0.0,2.0,97,0.07,,OVC012,0.49,0.00,VWS V14.01,2013-08-02 09:16:00,
2013-08-02 05:17:00,62.7,61.8,29.69,SW,220,0.0,2.0,97,0.07,,OVC012,0.49,0.00,VWS V14.01,2013-08-02 09:17:00,
2013-08-02 05:18:00,62.7,61.8,29.69,SW,220,0.0,2.0,97,0.07,,OVC012,0.49,0.00,VWS V14.01,2013-08-02 09:18:00,
2013-08-02 05:19:00,62.7,61.8,29.69,South,169,0.0,2.0,97,0.07,,OVC012,0.49,0.00,VWS V14.01,2013-08-02 09:19:00,
2013-08-02 05:22:00,62.7,61.8,29.69,South,169,0.0,2.0,97,0.07,,OVC012,0.49,0.00,VWS V14.01,2013-08-02 09:22:00,
2013-08-02 05:23:00,62.7,61.8,29.69,SSW,209,0.0,2.0,97,0.07,,OVC012,0.49,0.00,VWS V14.01,2013-08-02 09:23:00,
2013-08-02 05:24:00,62.7,61.8,29.69,SSW,209,0.0,2.0,97,0.07,,OVC012,0.49,0.00,VWS V14.01,2013-08-02 09:24:00,
2013-08-02 05:27:00,62.7,61.8,29.69,South,175,0.0,2.0,97,0.07,,OVC012,0.49,0.00,VWS V14.01,2013-08-02 09:27:00,
2013-08-02 05:28:00,62.7,61.8,29.69,South,175,0.0,2.0,97,0.07,,OVC012,0.49,0.00,VWS V14.01,2013-08-02 09:28:00,
2013-08-02 05:29:00,62.7,61.8,29.69,South,175,0.0,2.0,97,0.07,,OVC012,0.49,0.00,VWS V14.01,2013-08-02 09:29:00,
2013-08-02 05:30:00,62.7,61.8,29.69,South,175,0.0,2.0,97,0.07,,OVC050,0.49,0.00,VWS V14.01,2013-08-02 09:30:00,
2013-08-02 05:33:00,62.7,61.8,29.69,South,179,0.0,1.0,97,0.03,,OVC012,0.49,0.00,VWS V14.01,2013-08-02 09:33:00,
2013-08-02 05:34:00,62.7,61.8,29.69,South,179,0.0,1.0,97,0.03,,OVC012,0.49,0.00,VWS V14.01,2013-08-02 09:34:00,
2013-08-02 05:38:00,62.7,61.8,29.69,SSW,212,0.0,1.0,97,0.04,,OVC012,0.50,0.00,VWS V14.01,2013-08-02 09:38:00,
2013-08-02 05:39:00,62.7,61.8,29.69,SSW,212,0.0,1.0,97,0.04,,OVC012,0.50,0.00,VWS V14.01,2013-08-02 09:39:00,
2013-08-02 05:40:00,62.7,61.8,29.69,SSW,212,0.0,1.0,97,0.04,,OVC012,0.50,0.00,VWS V14.01,2013-08-02 09:40:00,
2013-08-02 05:43:00,62.7,61.8,29.69,SW,216,0.0,1.0,97,0.04,,OVC012,0.50,0.00,VWS V14.01,2013-08-02 09:43:00,
2013-08-02 05:44:00,62.7,61.8,29.69,SW,216,0.0,1.0,97,0.04,,OVC012,0.50,0.00,VWS V14.01,2013-08-02 09:44:00,
2013-08-02 05:45:00,62.7,61.8,29.69,SSW,209,0.0,4.0,97,0.04,,OVC012,0.50,0.00,VWS V14.01,2013-08-02 09:45:00,
2013-08-02 05:48:00,62.7,61.8,29.70,SSW,209,0.0,4.0,97,0.04,,OVC012,0.50,0.00,VWS V14.01,2013-08-02 09:48:00,
2013-08-02 05:49:00,62.7,61.8,29.70,SSW,209,0.0,4.0,97,0.04,,OVC012,0.50,0.00,VWS V14.01,2013-08-02 09:49:00,
2013-08-02 05:50:00,62.7,61.8,29.70,South,191,0.0,4.0,97,0.04,,OVC012,0.50,0.00,VWS V14.01,2013-08-02 09:50:00,
2013-08-02 05:53:00,62.7,61.8,29.70,SSW,209,0.0,4.0,97,0.04,,OVC012,0.50,0.00,VWS V14.01,2013-08-02 09:53:00,
2013-08-02 05:54:00,62.7,61.8,29.70,South,175,0.0,4.0,97,0.04,,OVC012,0.50,0.00,VWS V14.01,2013-08-02 09:54:00,
2013-08-02 05:55:00,62.7,61.8,29.70,South,175,0.0,4.0,97,0.04,,OVC012,0.50,0.00,VWS V14.01,2013-08-02 09:55:00,
2013-08-02 05:56:00,62.7,61.8,29.70,South,175,0.0,4.0,97,0.04,,OVC012,0.50,0.00,VWS V14.01,2013-08-02 09:56:00,
2013-08-02 05:57:00,62.7,61.8,29.70,SSE,161,0.0,5.0,97,0.04,,OVC012,0.50,0.00,VWS V14.01,2013-08-02 09:57:00,
2013-08-02 05:59:00,62.7,61.8,29.70,SW,215,0.0,5.0,97,0.04,,OVC012,0.50,0.00,VWS V14.01,2013-08-02 09:59:00,
2013-08-02 06:00:00,62.7,61.8,29.70,SW,215,0.0,5.0,97,0.04,,OVC010,0.50,0.00,VWS V14.01,2013-08-02 10:00:00,
2013-08-02 06:02:00,62.7,61.8,29.70,SSW,210,0.0,5.0,97,0.04,,OVC010,0.50,0.00,VWS V14.01,2013-08-02 10:02:00,
2013-08-02 06:03:00,62.7,61.8,29.70,SSW,212,0.0,0.0,97,0.01,,OVC010,0.50,0.00,VWS V14.01,2013-08-02 10:03:00,
2013-08-02 06:04:00,62.7,61.8,29.70,SSW,212,0.0,0.0,97,0.01,,OVC010,0.50,0.00,VWS V14.01,2013-08-02 10:04:00,
2013-08-02 06:06:00,62.7,61.8,29.70,South,171,0.0,0.0,97,0.01,,OVC010,0.50,0.00,VWS V14.01,2013-08-02 10:06:00,
2013-08-02 06:07:00,62.7,61.8,29.70,SW,223,0.0,0.0,97,0.01,,OVC010,0.50,0.00,VWS V14.01,2013-08-02 10:07:00,
2013-08-02 06:08:00,62.7,61.8,29.70,SSE,158,0.0,0.0,97,0.01,,OVC010,0.50,0.00,VWS V14.01,2013-08-02 10:08:00,
2013-08-02 06:11:00,62.7,61.8,29.70,ESE,120,0.0,4.0,97,0.01,,OVC010,0.50,0.00,VWS V14.01,2013-08-02 10:11:00,
2013-08-02 06:12:00,62.7,61.8,29.70,SW,236,0.0,4.0,97,0.01,,OVC010,0.50,0.00,VWS V14.01,2013-08-02 10:12:00,
2013-08-02 06:15:00,62.7,61.8,29.70,SW,226,0.0,4.0,97,0.01,,OVC010,0.50,0.00,VWS V14.01,2013-08-02 10:15:00,
2013-08-02 06:16:00,62.7,61.8,29.70,SW,226,0.0,4.0,97,0.01,,OVC010,0.50,0.00,VWS V14.01,2013-08-02 10:16:00,
2013-08-02 06:17:00,62.7,61.8,29.70,South,171,0.0,6.0,97,0.01,,OVC010,0.50,0.00,VWS V14.01,2013-08-02 10:17:00,
2013-08-02 06:18:00,62.7,61.8,29.70,South,179,0.0,6.0,97,0.01,,OVC010,0.50,0.00,VWS V14.01,2013-08-02 10:18:00,
2013-08-02 06:21:00,62.7,61.8,29.70,NNW,333,0.0,6.0,97,0.01,,OVC010,0.50,0.00,VWS V14.01,2013-08-02 10:21:00,
2013-08-02 06:22:00,62.7,61.8,29.70,NNW,333,0.0,6.0,97,0.01,,OVC010,0.50,0.00,VWS V14.01,2013-08-02 10:22:00,
2013-08-02 06:23:00,62.7,61.8,29.70,NNW,333,0.0,6.0,97,0.01,,OVC010,0.50,0.00,VWS V14.01,2013-08-02 10:23:00,
2013-08-02 06:27:00,62.7,61.8,29.70,SSW,193,0.0,6.0,97,0.02,,OVC010,0.51,0.00,VWS V14.01,2013-08-02 10:27:00,
2013-08-02 06:28:00,62.7,61.8,29.70,SSW,212,0.0,6.0,97,0.02,,OVC010,0.51,0.00,VWS V14.01,2013-08-02 10:28:00,
2013-08-02 06:30:00,62.7,61.8,29.70,SSW,202,0.0,6.0,97,0.02,,OVC050,0.51,0.00,VWS V14.01,2013-08-02 10:30:00,
2013-08-02 06:32:00,62.7,61.8,29.70,SSW,202,0.0,0.0,97,0.02,,OVC010,0.51,0.00,VWS V14.01,2013-08-02 10:32:00,
2013-08-02 06:33:00,62.7,61.8,29.70,SSW,202,0.0,0.0,97,0.02,,OVC010,0.51,0.00,VWS V14.01,2013-08-02 10:33:00,
2013-08-02 06:34:00,62.7,62.1,29.70,SSW,202,0.0,0.0,98,0.02,,OVC010,0.51,0.00,VWS V14.01,2013-08-02 10:34:00,
2013-08-02 06:37:00,62.7,62.1,29.70,SSW,195,0.0,6.0,98,0.02,,OVC010,0.51,0.00,VWS V14.01,2013-08-02 10:37:00,
2013-08-02 06:38:00,62.7,62.1,29.70,SSW,195,0.0,6.0,98,0.02,,OVC010,0.51,0.00,VWS V14.01,2013-08-02 10:38:00,
2013-08-02 06:40:00,62.7,61.8,29.70,SSW,195,0.0,6.0,97,0.02,,OVC010,0.51,0.00,VWS V14.01,2013-08-02 10:40:00,
2013-08-02 06:42:00,62.7,61.8,29.70,SSW,195,0.0,6.0,97,0.02,,OVC010,0.51,0.00,VWS V14.01,2013-08-02 10:42:00,
2013-08-02 06:43:00,62.7,61.8,29.70,SSW,195,0.0,6.0,97,0.02,,OVC010,0.51,0.00,VWS V14.01,2013-08-02 10:43:00,
2013-08-02 06:45:00,62.7,61.8,29.70,SSW,195,0.0,6.0,97,0.02,,OVC010,0.51,0.00,VWS V14.01,2013-08-02 10:45:00,
2013-08-02 06:48:00,62.7,62.1,29.70,South,178,0.0,6.0,98,0.02,,OVC010,0.51,0.00,VWS V14.01,2013-08-02 10:48:00,
2013-08-02 06:49:00,62.7,62.1,29.70,South,176,0.0,6.0,98,0.02,,OVC010,0.51,0.00,VWS V14.01,2013-08-02 10:49:00,
2013-08-02 06:50:00,62.7,62.1,29.70,South,176,0.0,6.0,98,0.02,,OVC010,0.51,0.00,VWS V14.01,2013-08-02 10:50:00,
2013-08-02 06:53:00,62.7,62.1,29.70,SSW,196,0.0,6.0,98,0.02,,OVC010,0.51,0.00,VWS V14.01,2013-08-02 10:53:00,
2013-08-02 06:54:00,62.7,62.1,29.70,SSW,196,0.0,6.0,98,0.02,,OVC010,0.51,0.00,VWS V14.01,2013-08-02 10:54:00,
2013-08-02 06:56:00,62.7,62.1,29.70,SSW,196,0.0,6.0,98,0.02,,OVC010,0.51,0.00,VWS V14.01,2013-08-02 10:56:00,
2013-08-02 06:59:00,62.7,62.1,29.70,SSW,193,0.0,6.0,98,0.02,,OVC010,0.51,0.00,VWS V14.01,2013-08-02 10:59:00,
2013-08-02 07:00:00,62.7,62.1,29.70,SW,216,0.0,6.0,98,0.02,,OVC050,0.51,0.00,VWS V14.01,2013-08-02 11:00:00,
2013-08-02 07:01:00,62.7,62.1,29.70,South,179,0.0,6.0,98,0.02,,OVC010,0.51,0.00,VWS V14.01,2013-08-02 11:01:00,
2013-08-02 07:04:00,62.7,62.1,29.70,WNW,296,0.0,0.0,98,0.01,,OVC010,0.51,0.00,VWS V14.01,2013-08-02 11:04:00,
2013-08-02 07:05:00,62.7,62.1,29.70,SE,138,0.0,0.0,98,0.01,,OVC010,0.51,0.00,VWS V14.01,2013-08-02 11:05:00,
2013-08-02 07:06:00,62.7,62.1,29.70,SE,138,0.0,0.0,98,0.01,,OVC010,0.51,0.00,VWS V14.01,2013-08-02 11:06:00,
2013-08-02 07:09:00,62.7,62.1,29.70,SSE,147,0.0,0.0,98,0.01,,OVC010,0.51,11.00,VWS V14.01,2013-08-02 11:09:00,
2013-08-02 07:10:00,62.7,62.1,29.70,SSE,147,0.0,0.0,98,0.01,,OVC010,0.51,11.00,VWS V14.01,2013-08-02 11:10:00,
2013-08-02 07:12:00,62.7,62.1,29.70,SSE,147,0.0,0.0,98,0.01,,OVC010,0.51,11.00,VWS V14.01,2013-08-02 11:12:00,
2013-08-02 07:14:00,62.7,62.1,29.70,SSE,147,0.0,0.0,98,0.01,,OVC010,0.51,9.00,VWS V14.01,2013-08-02 11:14:00,
2013-08-02 07:15:00,62.7,62.1,29.70,SSE,147,0.0,0.0,98,0.01,,OVC010,0.51,9.00,VWS V14.01,2013-08-02 11:15:00,
2013-08-02 07:17:00,62.9,62.3,29.70,SSE,147,0.0,0.0,98,0.01,,OVC010,0.51,9.00,VWS V14.01,2013-08-02 11:17:00,
2013-08-02 07:19:00,62.9,62.3,29.70,SW,222,0.0,0.0,98,0.01,,OVC010,0.51,9.00,VWS V14.01,2013-08-02 11:19:00,
2013-08-02 07:20:00,62.9,62.3,29.70,SW,222,0.0,0.0,98,0.01,,OVC010,0.51,9.00,VWS V14.01,2013-08-02 11:20:00,
2013-08-02 07:22:00,62.9,62.3,29.70,SW,222,0.0,0.0,98,0.01,,OVC010,0.51,9.00,VWS V14.01,2013-08-02 11:22:00,
2013-08-02 07:23:00,62.9,62.3,29.70,SW,222,0.0,0.0,98,0.01,,OVC010,0.51,9.00,VWS V14.01,2013-08-02 11:23:00,
2013-08-02 07:25:00,62.9,62.3,29.70,SW,222,0.0,0.0,98,0.01,,OVC010,0.51,16.00,VWS V14.01,2013-08-02 11:25:00,
2013-08-02 07:26:00,62.9,62.3,29.70,SW,222,0.0,0.0,98,0.01,,OVC010,0.51,16.00,VWS V14.01,2013-08-02 11:26:00,
2013-08-02 07:27:00,62.9,62.3,29.70,SW,222,0.0,0.0,98,0.01,,OVC010,0.51,16.00,VWS V14.01,2013-08-02 11:27:00,
2013-08-02 07:29:00,62.9,62.3,29.70,SW,222,0.0,0.0,98,0.01,,OVC010,0.51,21.00,VWS V14.01,2013-08-02 11:29:00,
2013-08-02 07:30:00,62.9,62.3,29.70,SW,222,0.0,0.0,98,0.01,,OVC010,0.51,21.00,VWS V14.01,2013-08-02 11:30:00,
2013-08-02 07:31:00,62.9,62.3,29.70,SW,222,0.0,0.0,98,0.01,,OVC010,0.51,21.00,VWS V14.01,2013-08-02 11:31:00,
2013-08-02 07:32:00,62.9,62.3,29.70,SW,222,0.0,0.0,98,0.00,,OVC010,0.51,21.00,VWS V14.01,2013-08-02 11:32:00,
2013-08-02 07:35:00,62.9,62.3,29.70,SSW,213,0.0,1.0,98,0.00,,OVC010,0.51,28.00,VWS V14.01,2013-08-02 11:35:00,
2013-08-02 07:36:00,62.9,62.3,29.70,SSW,213,0.0,1.0,98,0.00,,OVC010,0.51,28.00,VWS V14.01,2013-08-02 11:36:00,
2013-08-02 07:37:00,62.9,62.3,29.70,SSW,213,0.0,1.0,98,0.00,,OVC010,0.51,28.00,VWS V14.01,2013-08-02 11:37:00,
2013-08-02 07:38:00,62.9,62.3,29.70,SSW,213,0.0,1.0,98,0.00,,OVC010,0.51,30.00,VWS V14.01,2013-08-02 11:38:00,
2013-08-02 07:40:00,63.1,62.5,29.70,SSW,213,0.0,2.0,98,0.00,,OVC010,0.51,30.00,VWS V14.01,2013-08-02 11:40:00,
2013-08-02 07:41:00,63.1,62.5,29.70,SSW,213,0.0,2.0,98,0.00,,OVC010,0.51,30.00,VWS V14.01,2013-08-02 11:41:00,
2013-08-02 07:42:00,63.1,62.5,29.70,SSW,213,0.0,2.0,98,0.00,,OVC010,0.51,14.00,VWS V14.01,2013-08-02 11:42:00,
2013-08-02 07:44:00,63.1,62.5,29.70,SSW,213,0.0,2.0,98,0.00,,OVC010,0.51,14.00,VWS V14.01,2013-08-02 11:44:00,
2013-08-02 07:46:00,63.1,62.5,29.70,SSW,213,0.0,2.0,98,0.00,,OVC010,0.51,7.00,VWS V14.01,2013-08-02 11:46:00,
2013-08-02 07:47:00,63.1,62.5,29.71,SSW,213,0.0,2.0,98,0.00,,OVC010,0.51,7.00,VWS V14.01,2013-08-02 11:47:00,
2013-08-02 07:49:00,63.1,62.5,29.71,SSW,213,0.0,2.0,98,0.00,,OVC010,0.51,7.00,VWS V14.01,2013-08-02 11:49:00,
2013-08-02 07:51:00,63.1,62.5,29.71,SSW,198,0.0,2.0,98,0.00,,OVC010,0.51,9.00,VWS V14.01,2013-08-02 11:51:00,
2013-08-02 07:52:00,63.1,62.5,29.71,SSW,196,0.0,2.0,98,0.00,,OVC010,0.51,9.00,VWS V14.01,2013-08-02 11:52:00,
2013-08-02 07:53:00,63.1,62.5,29.71,SSE,152,0.0,2.0,98,0.00,,OVC010,0.51,9.00,VWS V14.01,2013-08-02 11:53:00,
2013-08-02 07:54:00,63.1,62.5,29.71,SSE,152,0.0,2.0,98,0.00,,OVC010,0.51,9.00,VWS V14.01,2013-08-02 11:54:00,
2013-08-02 07:56:00,63.1,62.5,29.71,SSE,151,0.0,2.0,98,0.00,,OVC010,0.51,11.00,VWS V14.01,2013-08-02 11:56:00,
2013-08-02 07:57:00,63.1,62.5,29.71,SSE,151,0.0,2.0,98,0.00,,OVC010,0.51,11.00,VWS V14.01,2013-08-02 11:57:00,
2013-08-02 07:58:00,63.1,62.5,29.71,SW,217,0.0,2.0,98,0.00,,OVC010,0.51,11.00,VWS V14.01,2013-08-02 11:58:00,
2013-08-02 08:00:00,63.1,62.5,29.71,West,272,0.0,2.0,98,0.00,,OVC010,0.51,11.00,VWS V14.01,2013-08-02 12:00:00,
2013-08-02 08:02:00,63.2,62.6,29.72,South,171,0.0,2.0,98,0.00,,OVC008,0.51,11.00,VWS V14.01,2013-08-02 12:02:00,
2013-08-02 08:03:00,63.1,62.5,29.72,South,169,0.0,0.0,98,0.00,,OVC008,0.51,11.00,VWS V14.01,2013-08-02 12:03:00,
2013-08-02 08:05:00,63.1,62.5,29.72,South,174,0.0,0.0,98,0.00,,OVC008,0.51,12.00,VWS V14.01,2013-08-02 12:05:00,
2013-08-02 08:07:00,63.1,62.5,29.72,South,185,0.0,0.0,98,0.00,,OVC008,0.51,16.00,VWS V14.01,2013-08-02 12:07:00,
2013-08-02 08:08:00,63.1,62.5,29.72,South,185,0.0,0.0,98,0.00,,OVC008,0.51,16.00,VWS V14.01,2013-08-02 12:08:00,
2013-08-02 08:09:00,63.1,62.5,29.72,South,185,0.0,0.0,98,0.00,,OVC008,0.51,16.00,VWS V14.01,2013-08-02 12:09:00,
2013-08-02 08:11:00,63.1,62.5,29.72,SSW,195,0.0,0.0,98,0.00,,OVC008,0.51,16.00,VWS V14.01,2013-08-02 12:11:00,
2013-08-02 08:13:00,63.1,62.5,29.72,SSW,195,0.0,0.0,98,0.00,,OVC008,0.51,16.00,VWS V14.01,2013-08-02 12:13:00,
2013-08-02 08:14:00,63.2,62.6,29.72,South,184,0.0,0.0,98,0.00,,OVC008,0.51,16.00,VWS V14.01,2013-08-02 12:14:00,
2013-08-02 08:17:00,63.2,62.6,29.71,SSW,199,0.0,1.0,98,0.00,,OVC008,0.51,16.00,VWS V14.01,2013-08-02 12:17:00,
2013-08-02 08:18:00,63.2,62.6,29.71,South,179,0.0,1.0,98,0.00,,OVC008,0.51,16.00,VWS V14.01,2013-08-02 12:18:00,
2013-08-02 08:19:00,63.2,62.6,29.71,South,179,0.0,1.0,98,0.00,,OVC008,0.51,28.00,VWS V14.01,2013-08-02 12:19:00,
2013-08-02 08:20:00,63.2,62.6,29.71,South,179,0.0,1.0,98,0.00,,OVC008,0.51,28.00,VWS V14.01,2013-08-02 12:20:00,
2013-08-02 08:22:00,63.2,62.6,29.71,South,179,0.0,1.0,98,0.00,,OVC008,0.51,28.00,VWS V14.01,2013-08-02 12:22:00,
2013-08-02 08:23:00,63.2,62.6,29.71,South,179,0.0,1.0,98,0.00,,OVC008,0.51,51.00,VWS V14.01,2013-08-02 12:23:00,
2013-08-02 08:25:00,63.2,62.6,29.71,South,179,0.0,1.0,98,0.00,,OVC008,0.51,51.00,VWS V14.01,2013-08-02 12:25:00,
2013-08-02 08:27:00,63.2,62.6,29.71,South,179,0.0,1.0,98,0.00,,OVC008,0.51,28.00,VWS V14.01,2013-08-02 12:27:00,
2013-08-02 08:28:00,63.2,62.6,29.71,South,179,0.0,1.0,98,0.00,,OVC008,0.51,28.00,VWS V14.01,2013-08-02 12:28:00,
2013-08-02 08:30:00,63.2,62.6,29.71,South,179,0.0,1.0,98,0.00,,OVC008,0.51,28.00,VWS V14.01,2013-08-02 12:30:00,
2013-08-02 08:31:00,63.2,62.6,29.71,South,179,0.0,1.0,98,0.00,,OVC008,0.51,28.00,VWS V14.01,2013-08-02 12:31:00,
2013-08-02 08:33:00,63.2,62.6,29.71,South,174,0.0,0.0,98,0.00,,OVC008,0.51,28.00,VWS V14.01,2013-08-02 12:33:00,
2013-08-02 08:35:00,63.2,62.6,29.71,South,185,0.0,0.0,98,0.00,,OVC008,0.51,28.00,VWS V14.01,2013-08-02 12:35:00,
2013-08-02 08:36:00,63.2,62.6,29.71,South,182,0.0,0.0,98,0.00,,OVC008,0.51,35.00,VWS V14.01,2013-08-02 12:36:00,
2013-08-02 08:37:00,63.2,62.6,29.71,South,182,0.0,0.0,98,0.00,,OVC008,0.51,35.00,VWS V14.01,2013-08-02 12:37:00,
2013-08-02 08:38:00,63.2,62.6,29.71,South,181,0.0,0.0,98,0.00,,OVC008,0.51,35.00,VWS V14.01,2013-08-02 12:38:00,
2013-08-02 08:39:00,63.2,62.6,29.71,South,181,0.0,0.0,98,0.00,,OVC008,0.51,35.00,VWS V14.01,2013-08-02 12:39:00,
2013-08-02 08:40:00,63.2,62.6,29.71,South,182,0.0,0.0,98,0.00,,OVC008,0.51,48.00,VWS V14.01,2013-08-02 12:40:00,
2013-08-02 08:41:00,63.4,62.8,29.71,South,169,0.0,1.0,98,0.00,,OVC008,0.51,48.00,VWS V14.01,2013-08-02 12:41:00,
2013-08-02 08:42:00,63.4,62.8,29.71,South,169,0.0,1.0,98,0.00,,OVC008,0.51,48.00,VWS V14.01,2013-08-02 12:42:00,
2013-08-02 08:44:00,63.4,62.8,29.71,South,169,0.0,1.0,98,0.00,,OVC008,0.51,48.00,VWS V14.01,2013-08-02 12:44:00,
2013-08-02 08:46:00,63.4,62.8,29.71,South,169,0.0,1.0,98,0.00,,OVC008,0.51,58.00,VWS V14.01,2013-08-02 12:46:00,
2013-08-02 08:47:00,63.4,62.8,29.71,South,169,0.0,1.0,98,0.00,,OVC008,0.51,69.00,VWS V14.01,2013-08-02 12:47:00,
2013-08-02 08:49:00,63.4,62.8,29.71,SSW,203,0.0,1.0,98,0.00,,OVC008,0.51,95.00,VWS V14.01,2013-08-02 12:49:00,
2013-08-02 08:52:00,63.5,62.9,29.71,SSW,203,0.0,1.0,98,0.00,,OVC008,0.51,141.00,VWS V14.01,2013-08-02 12:52:00,
2013-08-02 08:53:00,63.5,62.9,29.71,SSW,203,0.0,1.0,98,0.00,,OVC008,0.51,107.00,VWS V14.01,2013-08-02 12:53:00,
2013-08-02 08:54:00,63.5,62.9,29.71,SSW,203,0.0,1.0,98,0.00,,OVC008,0.51,79.00,VWS V14.01,2013-08-02 12:54:00,
2013-08-02 08:56:00,63.7,63.1,29.71,SSW,203,0.0,1.0,98,0.00,,OVC008,0.51,56.00,VWS V14.01,2013-08-02 12:56:00,
2013-08-02 08:57:00,63.7,63.1,29.71,SSW,203,0.0,1.0,98,0.00,,OVC008,0.51,67.00,VWS V14.01,2013-08-02 12:57:00,
2013-08-02 08:58:00,63.7,63.1,29.71,SSW,203,0.0,1.0,98,0.00,,OVC008,0.51,77.00,VWS V14.01,2013-08-02 12:58:00,
2013-08-02 08:59:00,63.7,63.1,29.71,SSW,203,0.0,1.0,98,0.00,,OVC008,0.51,72.00,VWS V14.01,2013-08-02 12:59:00,
2013-08-02 09:00:00,63.9,63.3,29.71,SW,234,0.0,3.0,98,0.00,,OVC050,0.51,65.00,VWS V14.01,2013-08-02 13:00:00,
2013-08-02 09:02:00,63.9,63.3,29.70,SW,234,0.0,3.0,98,0.00,,OVC050,0.51,65.00,VWS V14.01,2013-08-02 13:02:00,
2013-08-02 09:03:00,63.9,63.3,29.70,SW,233,0.0,0.0,98,0.00,,OVC050,0.51,70.00,VWS V14.01,2013-08-02 13:03:00,
2013-08-02 09:04:00,63.9,63.3,29.70,SW,233,0.0,0.0,98,0.00,,OVC050,0.51,69.00,VWS V14.01,2013-08-02 13:04:00,
2013-08-02 09:07:00,63.9,63.3,29.70,WSW,240,0.0,0.0,98,0.00,,OVC050,0.51,97.00,VWS V14.01,2013-08-02 13:07:00,
2013-08-02 09:08:00,64.0,63.4,29.70,WSW,240,0.0,0.0,98,0.00,,OVC050,0.51,109.00,VWS V14.01,2013-08-02 13:08:00,
2013-08-02 09:10:00,64.0,63.4,29.70,WSW,240,0.0,2.0,98,0.00,,OVC050,0.51,123.00,VWS V14.01,2013-08-02 13:10:00,
2013-08-02 09:12:00,64.0,63.4,29.70,WSW,241,0.0,2.0,98,0.00,,OVC050,0.51,97.00,VWS V14.01,2013-08-02 13:12:00,
2013-08-02 09:13:00,64.2,63.6,29.70,WSW,241,0.0,2.0,98,0.00,,OVC050,0.51,97.00,VWS V14.01,2013-08-02 13:13:00,
2013-08-02 09:15:00,64.2,63.6,29.70,WSW,241,0.0,2.0,98,0.00,,OVC050,0.51,76.00,VWS V14.01,2013-08-02 13:15:00,
2013-08-02 09:18:00,64.2,63.6,29.71,North,350,0.0,2.0,98,0.00,,OVC050,0.51,60.00,VWS V14.01,2013-08-02 13:18:00,
2013-08-02 09:19:00,64.2,63.6,29.71,North,350,0.0,2.0,98,0.00,,OVC050,0.51,69.00,VWS V14.01,2013-08-02 13:19:00,
2013-08-02 09:20:00,64.2,63.6,29.71,North,350,0.0,2.0,98,0.00,,OVC050,0.51,83.00,VWS V14.01,2013-08-02 13:20:00,
2013-08-02 09:21:00,64.2,63.6,29.71,WNW,288,0.0,2.0,98,0.00,,OVC050,0.51,88.00,VWS V14.01,2013-08-02 13:21:00,
2013-08-02 09:23:00,64.3,63.7,29.71,WNW,287,0.0,2.0,98,0.00,,OVC050,0.51,144.00,VWS V14.01,2013-08-02 13:23:00,
2013-08-02 09:24:00,64.3,63.7,29.71,WNW,287,0.0,2.0,98,0.00,,OVC050,0.51,151.00,VWS V14.01,2013-08-02 13:24:00,
2013-08-02 09:25:00,64.3,63.7,29.71,WNW,287,0.0,2.0,98,0.00,,OVC050,0.51,155.00,VWS V14.01,2013-08-02 13:25:00,
2013-08-02 09:26:00,64.3,63.7,29.71,WNW,285,0.0,2.0,98,0.00,,OVC050,0.51,195.00,VWS V14.01,2013-08-02 13:26:00,
2013-08-02 09:28:00,64.5,63.9,29.71,WNW,285,0.0,2.0,98,0.00,,OVC050,0.51,179.00,VWS V14.01,2013-08-02 13:28:00,
2013-08-02 09:29:00,64.5,63.9,29.71,WSW,253,0.0,2.0,98,0.00,,OVC050,0.51,176.00,VWS V14.01,2013-08-02 13:29:00,
2013-08-02 09:30:00,64.5,63.9,29.71,WSW,253,0.0,2.0,98,0.00,,OVC050,0.51,162.00,VWS V14.01,2013-08-02 13:30:00,
2013-08-02 09:31:00,64.5,63.9,29.70,WSW,253,0.0,2.0,98,0.00,,OVC050,0.51,174.00,VWS V14.01,2013-08-02 13:31:00,
2013-08-02 09:34:00,64.7,64.1,29.70,WSW,253,0.0,0.0,98,0.00,,OVC050,0.51,158.00,VWS V14.01,2013-08-02 13:34:00,
2013-08-02 09:35:00,64.7,64.1,29.70,WSW,253,0.0,0.0,98,0.00,,OVC050,0.51,127.00,VWS V14.01,2013-08-02 13:35:00,
2013-08-02 09:36:00,64.8,64.2,29.70,WSW,253,0.0,0.0,98,0.00,,OVC050,0.51,127.00,VWS V14.01,2013-08-02 13:36:00,
2013-08-02 09:37:00,64.8,64.2,29.70,SSW,192,0.0,0.0,98,0.00,,OVC050,0.51,202.00,VWS V14.01,2013-08-02 13:37:00,
2013-08-02 09:39:00,64.8,64.2,29.70,SSW,192,0.0,0.0,98,0.00,,OVC050,0.51,155.00,VWS V14.01,2013-08-02 13:39:00,
2013-08-02 09:40:00,65.0,64.4,29.70,SSW,192,0.0,0.0,98,0.00,,OVC050,0.51,178.00,VWS V14.01,2013-08-02 13:40:00,
2013-08-02 09:41:00,65.0,64.4,29.70,SSW,195,0.0,0.0,98,0.00,,OVC050,0.51,230.00,VWS V14.01,2013-08-02 13:41:00,
2013-08-02 09:43:00,65.0,64.4,29.70,SSW,195,0.0,0.0,98,0.00,,OVC050,0.51,227.00,VWS V14.01,2013-08-02 13:43:00,
2013-08-02 09:44:00,65.2,64.6,29.70,WNW,299,0.0,0.0,98,0.00,,OVC050,0.51,167.00,VWS V14.01,2013-08-02 13:44:00,
2013-08-02 09:45:00,65.2,64.6,29.70,WNW,299,0.0,0.0,98,0.00,,OVC050,0.51,135.00,VWS V14.01,2013-08-02 13:45:00,
2013-08-02 09:46:00,65.2,64.6,29.70,WNW,298,0.0,0.0,98,0.00,,OVC050,0.51,150.00,VWS V14.01,2013-08-02 13:46:00,
2013-08-02 09:49:00,65.3,64.7,29.70,WNW,295,0.0,0.0,98,0.00,,OVC050,0.51,172.00,VWS V14.01,2013-08-02 13:49:00,
2013-08-02 09:50:00,65.3,64.7,29.70,WNW,295,0.0,0.0,98,0.00,,OVC050,0.51,172.00,VWS V14.01,2013-08-02 13:50:00,
2013-08-02 09:52:00,65.3,64.7,29.70,WNW,295,0.0,0.0,98,0.00,,OVC050,0.51,208.00,VWS V14.01,2013-08-02 13:52:00,
2013-08-02 09:54:00,65.5,64.9,29.70,WNW,295,0.0,0.0,98,0.00,,OVC050,0.51,201.00,VWS V14.01,2013-08-02 13:54:00,
2013-08-02 09:55:00,65.5,64.9,29.70,SW,229,0.0,2.0,98,0.00,,OVC050,0.51,223.00,VWS V14.01,2013-08-02 13:55:00,
2013-08-02 09:57:00,65.6,65.0,29.70,SW,229,0.0,2.0,98,0.00,,OVC050,0.51,215.00,VWS V14.01,2013-08-02 13:57:00,
2013-08-02 09:59:00,65.6,65.0,29.70,SW,229,0.0,2.0,98,0.00,,OVC050,0.51,164.00,VWS V14.01,2013-08-02 13:59:00,
2013-08-02 10:00:00,65.6,65.0,29.70,SW,229,0.0,2.0,98,0.00,,OVC050,0.51,165.00,VWS V14.01,2013-08-02 14:00:00,
2013-08-02 10:01:00,65.6,65.0,29.70,SW,229,0.0,2.0,98,0.00,,BKN016,0.51,165.00,VWS V14.01,2013-08-02 14:01:00,
2013-08-02 10:02:00,65.8,65.2,29.70,SW,229,0.0,0.0,98,0.00,,BKN016,0.51,287.00,VWS V14.01,2013-08-02 14:02:00,
2013-08-02 10:04:00,65.8,65.2,29.70,SW,229,0.0,0.0,98,0.00,,BKN016,0.51,274.00,VWS V14.01,2013-08-02 14:04:00,
2013-08-02 10:05:00,65.8,65.2,29.70,SW,229,0.0,0.0,98,0.00,,BKN016,0.51,287.00,VWS V14.01,2013-08-02 14:05:00,
2013-08-02 10:06:00,66.0,65.4,29.70,SW,229,0.0,0.0,98,0.00,,BKN016,0.51,278.00,VWS V14.01,2013-08-02 14:06:00,
2013-08-02 10:07:00,66.0,65.4,29.70,SW,229,0.0,0.0,98,0.00,,BKN016,0.51,285.00,VWS V14.01,2013-08-02 14:07:00,
2013-08-02 10:10:00,66.1,65.5,29.70,SW,229,0.0,0.0,98,0.00,,BKN016,0.51,209.00,VWS V14.01,2013-08-02 14:10:00,
2013-08-02 10:11:00,66.3,65.7,29.70,SW,229,0.0,0.0,98,0.00,,BKN016,0.51,201.00,VWS V14.01,2013-08-02 14:11:00,
2013-08-02 10:13:00,66.4,65.8,29.70,SW,229,0.0,0.0,98,0.00,,BKN016,0.51,230.00,VWS V14.01,2013-08-02 14:13:00,
2013-08-02 10:15:00,66.8,66.2,29.70,West,264,0.0,0.0,98,0.00,,BKN016,0.51,230.00,VWS V14.01,2013-08-02 14:15:00,
2013-08-02 10:16:00,66.9,66.3,29.69,West,264,0.0,0.0,98,0.00,,BKN016,0.51,230.00,VWS V14.01,2013-08-02 14:16:00,
2013-08-02 10:17:00,66.9,66.3,29.69,WSW,257,0.0,0.0,98,0.00,,BKN016,0.51,230.00,VWS V14.01,2013-08-02 14:17:00,
2013-08-02 10:19:00,67.3,66.7,29.69,WSW,241,0.0,0.0,98,0.00,,BKN016,0.51,867.00,VWS V14.01,2013-08-02 14:19:00,
2013-08-02 10:20:00,67.4,66.8,29.69,WSW,239,0.0,0.0,98,0.00,,BKN016,0.51,867.00,VWS V14.01,2013-08-02 14:20:00,
2013-08-02 10:21:00,67.4,66.8,29.69,WSW,239,0.0,0.0,98,0.00,,BKN016,0.51,355.00,VWS V14.01,2013-08-02 14:21:00,
2013-08-02 10:22:00,67.4,66.8,29.69,WSW,240,0.0,1.0,98,0.00,,BKN016,0.51,355.00,VWS V14.01,2013-08-02 14:22:00,
2013-08-02 10:24:00,67.8,67.2,29.69,WNW,284,0.0,1.0,98,0.00,,BKN016,0.51,311.00,VWS V14.01,2013-08-02 14:24:00,
2013-08-02 10:26:00,67.8,67.2,29.69,WNW,284,0.0,1.0,98,0.00,,BKN016,0.51,357.00,VWS V14.01,2013-08-02 14:26:00,
2013-08-02 10:27:00,67.8,67.2,29.69,WNW,284,0.0,1.0,98,0.00,,BKN016,0.51,357.00,VWS V14.01,2013-08-02 14:27:00,
2013-08-02 10:29:00,67.9,67.3,29.69,SW,219,0.0,1.0,98,0.00,,BKN016,0.51,357.00,VWS V14.01,2013-08-02 14:29:00,
2013-08-02 10:30:00,68.1,67.5,29.69,West,274,0.0,1.0,98,0.00,,OVC050,0.51,313.00,VWS V14.01,2013-08-02 14:30:00,
2013-08-02 10:32:00,68.1,67.5,29.69,West,274,0.0,1.0,98,0.00,,BKN016,0.51,313.00,VWS V14.01,2013-08-02 14:32:00,
2013-08-02 10:33:00,68.1,67.5,29.69,West,275,0.0,0.0,98,0.00,,BKN016,0.51,313.00,VWS V14.01,2013-08-02 14:33:00,
2013-08-02 10:35:00,68.4,67.8,29.69,SSW,206,0.0,0.0,98,0.00,,BKN016,0.51,303.00,VWS V14.01,2013-08-02 14:35:00,
2013-08-02 10:37:00,68.4,67.8,29.69,SW,227,0.0,0.0,98,0.00,,BKN016,0.51,322.00,VWS V14.01,2013-08-02 14:37:00,
2013-08-02 10:38:00,68.4,67.8,29.69,SW,227,0.0,0.0,98,0.00,,BKN016,0.51,315.00,VWS V14.01,2013-08-02 14:38:00,
2013-08-02 10:40:00,68.6,68.0,29.69,SW,229,0.0,0.0,98,0.00,,BKN016,0.51,315.00,VWS V14.01,2013-08-02 14:40:00,
2013-08-02 10:42:00,68.6,68.0,29.69,WSW,254,0.0,2.0,98,0.00,,BKN016,0.51,257.00,VWS V14.01,2013-08-02 14:42:00,
2013-08-02 10:43:00,68.6,67.7,29.69,WSW,254,0.0,2.0,97,0.00,,BKN016,0.51,274.00,VWS V14.01,2013-08-02 14:43:00,
2013-08-02 10:45:00,68.6,67.7,29.69,WSW,254,0.0,2.0,97,0.00,,BKN016,0.51,276.00,VWS V14.01,2013-08-02 14:45:00,
2013-08-02 10:48:00,68.9,68.0,29.69,West,271,0.0,3.0,97,0.00,,BKN016,0.51,892.00,VWS V14.01,2013-08-02 14:48:00,
2013-08-02 10:49:00,69.1,68.2,29.69,West,271,0.0,3.0,97,0.00,,BKN016,0.51,860.00,VWS V14.01,2013-08-02 14:49:00,
2013-08-02 10:50:00,69.3,68.4,29.69,West,271,0.0,3.0,97,0.00,,BKN016,0.51,860.00,VWS V14.01,2013-08-02 14:50:00,
2013-08-02 10:51:00,69.3,68.4,29.69,West,271,0.0,3.0,97,0.00,,BKN016,0.51,860.00,VWS V14.01,2013-08-02 14:51:00,
2013-08-02 10:53:00,69.4,68.2,29.69,West,278,0.0,3.0,96,0.00,,BKN016,0.51,278.00,VWS V14.01,2013-08-02 14:53:00,
2013-08-02 10:54:00,69.4,68.2,29.69,West,278,0.0,3.0,96,0.00,,BKN016,0.51,297.00,VWS V14.01,2013-08-02 14:54:00,
2013-08-02 10:55:00,69.3,67.8,29.69,North,357,0.0,6.0,95,0.00,,BKN016,0.51,336.00,VWS V14.01,2013-08-02 14:55:00,
2013-08-02 10:56:00,69.3,67.8,29.69,North,357,0.0,6.0,95,0.00,,BKN016,0.51,336.00,VWS V14.01,2013-08-02 14:56:00,
2013-08-02 10:59:00,69.4,67.6,29.69,NW,308,0.0,6.0,94,0.00,,BKN016,0.51,264.00,VWS V14.01,2013-08-02 14:59:00,
2013-08-02 11:00:00,69.6,67.8,29.69,NW,306,0.0,6.0,94,0.00,,BKN016,0.51,264.00,VWS V14.01,2013-08-02 15:00:00,
2013-08-02 11:01:00,69.8,67.7,29.69,NW,309,0.0,6.0,93,0.00,,SCT028,0.51,264.00,VWS V14.01,2013-08-02 15:01:00,
2013-08-02 11:04:00,70.3,67.9,29.69,NW,304,0.0,0.0,92,0.00,,SCT028,0.51,206.00,VWS V14.01,2013-08-02 15:04:00,
2013-08-02 11:06:00,70.3,67.2,29.69,NW,319,1.0,6.0,90,0.00,,SCT028,0.51,232.00,VWS V14.01,2013-08-02 15:06:00,
2013-08-02 11:07:00,70.4,67.3,29.69,NNW,330,0.0,6.0,90,0.00,,SCT028,0.51,232.00,VWS V14.01,2013-08-02 15:07:00,
2013-08-02 11:09:00,70.8,67.4,29.69,NW,305,0.0,6.0,89,0.00,,SCT028,0.51,874.00,VWS V14.01,2013-08-02 15:09:00,
2013-08-02 11:10:00,70.8,67.4,29.69,NW,309,0.0,6.0,89,0.00,,SCT028,0.51,882.00,VWS V14.01,2013-08-02 15:10:00,
2013-08-02 11:11:00,70.9,67.5,29.69,NW,320,0.0,6.0,89,0.00,,SCT028,0.51,899.00,VWS V14.01,2013-08-02 15:11:00,
2013-08-02 11:12:00,70.9,67.2,29.69,North,356,0.0,6.0,88,0.00,,SCT028,0.51,941.00,VWS V14.01,2013-08-02 15:12:00,
2013-08-02 11:15:00,71.6,66.9,29.69,SSW,210,0.0,6.0,85,0.00,,SCT028,0.51,1040.00,VWS V14.01,2013-08-02 15:15:00,
2013-08-02 11:17:00,72.0,67.6,29.68,WSW,256,0.0,6.0,86,0.00,,SCT028,0.51,1019.00,VWS V14.01,2013-08-02 15:17:00,
2013-08-02 11:18:00,72.1,67.3,29.68,WNW,302,0.0,6.0,85,0.00,,SCT028,0.51,1019.00,VWS V14.01,2013-08-02 15:18:00,
2013-08-02 11:20:00,72.3,66.5,29.68,West,271,0.0,6.0,82,0.00,,SCT028,0.51,164.00,VWS V14.01,2013-08-02 15:20:00,
2013-08-02 11:22:00,72.3,65.4,29.68,NW,316,0.0,6.0,79,0.00,,SCT028,0.51,867.00,VWS V14.01,2013-08-02 15:22:00,
2013-08-02 11:23:00,72.5,65.6,29.68,NW,308,0.0,6.0,79,0.00,,SCT028,0.51,880.00,VWS V14.01,2013-08-02 15:23:00,
2013-08-02 11:26:00,72.8,66.3,29.68,North,353,0.0,6.0,80,0.00,,SCT028,0.51,915.00,VWS V14.01,2013-08-02 15:26:00,
2013-08-02 11:27:00,73.0,66.5,29.68,North,0,0.0,6.0,80,0.00,,SCT028,0.51,887.00,VWS V14.01,2013-08-02 15:27:00,
2013-08-02 11:28:00,73.2,67.0,29.68,NNW,339,0.0,6.0,81,0.00,,SCT028,0.51,855.00,VWS V14.01,2013-08-02 15:28:00,
2013-08-02 11:29:00,73.3,67.1,29.68,West,263,0.0,6.0,81,0.00,,SCT028,0.51,855.00,VWS V14.01,2013-08-02 15:29:00,
2013-08-02 11:30:00,73.7,65.7,29.68,North,359,0.0,6.0,76,0.00,,OVC050,0.51,894.00,VWS V14.01,2013-08-02 15:30:00,
2013-08-02 11:31:00,73.7,66.1,29.67,North,0,0.0,6.0,77,0.00,,SCT028,0.51,894.00,VWS V14.01,2013-08-02 15:31:00,
2013-08-02 11:32:00,73.7,65.3,29.67,North,359,0.0,0.0,75,0.00,,SCT028,0.51,894.00,VWS V14.01,2013-08-02 15:32:00,
2013-08-02 11:33:00,74.0,66.7,29.67,WNW,282,0.0,1.0,78,0.00,,SCT028,0.51,894.00,VWS V14.01,2013-08-02 15:33:00,
2013-08-02 11:34:00,74.0,66.3,29.67,West,260,5.0,5.0,77,0.00,,SCT028,0.51,894.00,VWS V14.01,2013-08-02 15:34:00,
2013-08-02 11:36:00,74.2,66.2,29.67,WNW,296,0.0,5.0,76,0.00,,SCT028,0.51,894.00,VWS V14.01,2013-08-02 15:36:00,
2013-08-02 11:38:00,74.4,67.8,29.67,West,281,3.0,5.0,80,0.00,,SCT028,0.51,931.00,VWS V14.01,2013-08-02 15:38:00,
2013-08-02 11:39:00,74.6,65.8,29.67,West,277,0.0,5.0,74,0.00,,SCT028,0.51,959.00,VWS V14.01,2013-08-02 15:39:00,
2013-08-02 11:41:00,74.9,67.2,29.67,WNW,285,0.0,5.0,77,0.00,,SCT028,0.51,999.00,VWS V14.01,2013-08-02 15:41:00,
2013-08-02 11:43:00,74.9,65.7,29.67,NNW,328,0.0,5.0,73,0.00,,SCT028,0.51,999.00,VWS V14.01,2013-08-02 15:43:00,
2013-08-02 11:44:00,75.1,66.6,29.67,West,263,0.0,5.0,75,0.00,,SCT028,0.51,999.00,VWS V14.01,2013-08-02 15:44:00,
2013-08-02 11:45:00,75.3,66.8,29.67,WSW,256,1.0,5.0,75,0.00,,SCT028,0.51,866.00,VWS V14.01,2013-08-02 15:45:00,
2013-08-02 11:46:00,75.4,65.3,29.68,WSW,256,0.0,5.0,71,0.00,,SCT028,0.51,866.00,VWS V14.01,2013-08-02 15:46:00,
2013-08-02 11:48:00,75.4,64.9,29.68,WNW,298,0.0,5.0,70,0.00,,SCT028,0.51,934.00,VWS V14.01,2013-08-02 15:48:00,
2013-08-02 11:49:00,75.4,64.9,29.68,North,359,0.0,5.0,70,0.00,,SCT028,0.51,934.00,VWS V14.01,2013-08-02 15:49:00,
2013-08-02 11:50:00,75.6,65.1,29.68,WNW,287,0.0,5.0,70,0.00,,SCT028,0.51,934.00,VWS V14.01,2013-08-02 15:50:00,
2013-08-02 11:53:00,75.8,65.7,29.68,NW,304,0.0,5.0,71,0.00,,SCT028,0.51,289.00,VWS V14.01,2013-08-02 15:53:00,
2013-08-02 11:54:00,75.6,65.1,29.68,NW,311,0.0,5.0,70,0.00,,SCT028,0.51,260.00,VWS V14.01,2013-08-02 15:54:00,
2013-08-02 11:55:00,75.6,65.5,29.68,WNW,285,0.0,5.0,71,0.00,,SCT028,0.51,225.00,VWS V14.01,2013-08-02 15:55:00,
2013-08-02 11:59:00,75.8,65.7,29.68,WNW,282,0.0,5.0,71,0.00,,SCT028,0.51,234.00,VWS V14.01,2013-08-02 15:59:00,
2013-08-02 12:00:00,75.6,65.5,29.68,WNW,287,0.0,5.0,71,0.00,,SCT028,0.51,234.00,VWS V14.01,2013-08-02 16:00:00,
2013-08-02 12:04:00,75.8,65.7,29.68,North,357,0.0,0.0,71,0.00,,FEW043,0.51,1024.00,VWS V14.01,2013-08-02 16:04:00,
2013-08-02 12:05:00,76.0,66.3,29.68,West,274,0.0,0.0,72,0.00,,FEW043,0.51,991.00,VWS V14.01,2013-08-02 16:05:00,
2013-08-02 12:09:00,76.3,66.2,29.68,WSW,257,2.0,5.0,71,0.00,,FEW043,0.51,934.00,VWS V14.01,2013-08-02 16:09:00,
2013-08-02 12:10:00,76.3,65.8,29.68,SSW,196,0.0,5.0,70,0.00,,FEW043,0.51,964.00,VWS V14.01,2013-08-02 16:10:00,
2013-08-02 12:11:00,76.3,65.0,29.68,South,189,0.0,5.0,68,0.00,,FEW043,0.51,952.00,VWS V14.01,2013-08-02 16:11:00,
2013-08-02 12:14:00,76.5,64.7,29.68,West,281,0.0,7.0,67,0.00,,FEW043,0.51,945.00,VWS V14.01,2013-08-02 16:14:00,
2013-08-02 12:15:00,76.7,64.9,29.68,WNW,302,0.0,7.0,67,0.00,,FEW043,0.51,945.00,VWS V14.01,2013-08-02 16:15:00,
2013-08-02 12:17:00,76.7,66.2,29.68,WNW,301,0.0,7.0,70,0.00,,FEW043,0.51,913.00,VWS V14.01,2013-08-02 16:17:00,
2013-08-02 12:19:00,77.0,66.5,29.68,West,277,0.0,7.0,70,0.00,,FEW043,0.51,936.00,VWS V14.01,2013-08-02 16:19:00,
2013-08-02 12:20:00,77.0,65.6,29.68,SSW,193,0.0,7.0,68,0.00,,FEW043,0.51,948.00,VWS V14.01,2013-08-02 16:20:00,
2013-08-02 12:21:00,77.0,65.2,29.68,SSW,209,1.0,7.0,67,0.00,,FEW043,0.51,973.00,VWS V14.01,2013-08-02 16:21:00,
2013-08-02 12:22:00,77.2,65.0,29.68,West,263,0.0,7.0,66,0.00,,FEW043,0.51,999.00,VWS V14.01,2013-08-02 16:22:00,
2013-08-02 12:24:00,77.2,64.5,29.68,WNW,289,0.0,7.0,65,0.00,,FEW043,0.51,934.00,VWS V14.01,2013-08-02 16:24:00,
2013-08-02 12:25:00,77.4,65.2,29.68,North,0,0.0,7.0,66,0.00,,FEW043,0.51,934.00,VWS V14.01,2013-08-02 16:25:00,
2013-08-02 12:26:00,77.4,65.2,29.68,NW,304,2.0,7.0,66,0.00,,FEW043,0.51,934.00,VWS V14.01,2013-08-02 16:26:00,
2013-08-02 12:27:00,77.4,66.9,29.68,NW,311,0.0,7.0,70,0.00,,FEW043,0.51,947.00,VWS V14.01,2013-08-02 16:27:00,
2013-08-02 12:30:00,77.4,64.3,29.68,NNE,28,0.0,7.0,64,0.00,,FEW043,0.51,947.00,VWS V14.01,2013-08-02 16:30:00,
2013-08-02 12:31:00,77.4,64.7,29.67,NNE,13,0.0,7.0,65,0.00,,FEW043,0.51,947.00,VWS V14.01,2013-08-02 16:31:00,
2013-08-02 12:32:00,77.4,64.7,29.67,West,278,6.0,7.0,65,0.00,,FEW043,0.51,947.00,VWS V14.01,2013-08-02 16:32:00,
2013-08-02 12:35:00,77.4,65.6,29.67,NNE,20,0.0,6.0,67,0.00,,FEW043,0.51,947.00,VWS V14.01,2013-08-02 16:35:00,
2013-08-02 12:37:00,77.4,64.7,29.67,WNW,298,0.0,6.0,65,0.00,,FEW043,0.51,947.00,VWS V14.01,2013-08-02 16:37:00,
2013-08-02 12:38:00,77.4,64.7,29.67,WSW,247,0.0,6.0,65,0.00,,FEW043,0.51,947.00,VWS V14.01,2013-08-02 16:38:00,
2013-08-02 12:40:00,77.4,65.6,29.67,WNW,287,0.0,6.0,67,0.00,,FEW043,0.51,213.00,VWS V14.01,2013-08-02 16:40:00,
2013-08-02 12:42:00,77.4,64.7,29.67,WSW,257,0.0,6.0,65,0.00,,FEW043,0.51,938.00,VWS V14.01,2013-08-02 16:42:00,
2013-08-02 12:43:00,77.6,65.3,29.67,WSW,257,0.0,6.0,66,0.00,,FEW043,0.51,934.00,VWS V14.01,2013-08-02 16:43:00,
2013-08-02 12:45:00,77.6,65.8,29.67,SW,227,0.0,6.0,67,0.00,,FEW043,0.51,936.00,VWS V14.01,2013-08-02 16:45:00,
2013-08-02 12:47:00,77.7,65.0,29.67,WSW,248,3.0,6.0,65,0.00,,FEW043,0.51,889.00,VWS V14.01,2013-08-02 16:47:00,
2013-08-02 12:48:00,77.7,64.6,29.67,WSW,258,0.0,6.0,64,0.00,,FEW043,0.51,889.00,VWS V14.01,2013-08-02 16:48:00,
2013-08-02 12:52:00,78.1,65.4,29.67,West,280,5.0,6.0,65,0.00,,FEW043,0.51,906.00,VWS V14.01,2013-08-02 16:52:00,
2013-08-02 12:53:00,78.1,64.9,29.67,West,271,0.0,6.0,64,0.00,,FEW043,0.51,903.00,VWS V14.01,2013-08-02 16:53:00,
2013-08-02 12:54:00,78.1,64.9,29.67,West,271,0.0,6.0,64,0.00,,FEW043,0.51,903.00,VWS V14.01,2013-08-02 16:54:00,
2013-08-02 12:57:00,78.5,65.8,29.67,South,188,0.0,6.0,65,0.00,,FEW043,0.51,977.00,VWS V14.01,2013-08-02 16:57:00,
2013-08-02 12:58:00,78.6,65.9,29.67,South,188,0.0,6.0,65,0.00,,FEW043,0.51,977.00,VWS V14.01,2013-08-02 16:58:00,
2013-08-02 12:59:00,78.8,67.8,29.67,SW,217,0.0,6.0,69,0.00,,FEW043,0.51,984.00,VWS V14.01,2013-08-02 16:59:00,
2013-08-02 13:00:00,78.8,65.6,29.67,SSE,167,0.0,7.0,64,0.00,,OVC050,0.51,924.00,VWS V14.01,2013-08-02 17:00:00,
2013-08-02 13:03:00,78.8,65.2,29.67,SSE,167,0.0,0.0,63,0.00,,CLR,0.51,906.00,VWS V14.01,2013-08-02 17:03:00,
2013-08-02 13:04:00,79.0,63.9,29.67,NW,305,4.0,6.0,60,0.00,,CLR,0.51,903.00,VWS V14.01,2013-08-02 17:04:00,
2013-08-02 13:05:00,78.8,63.8,29.67,NW,325,0.0,6.0,60,0.00,,CLR,0.51,903.00,VWS V14.01,2013-08-02 17:05:00,
2013-08-02 13:08:00,79.2,64.6,29.67,NW,315,2.0,6.0,61,0.00,,CLR,0.51,894.00,VWS V14.01,2013-08-02 17:08:00,
2013-08-02 13:09:00,79.2,64.6,29.67,NW,312,1.0,6.0,61,0.00,,CLR,0.51,894.00,VWS V14.01,2013-08-02 17:09:00,
2013-08-02 13:10:00,79.2,64.1,29.67,NNW,347,0.0,6.0,60,0.00,,CLR,0.51,896.00,VWS V14.01,2013-08-02 17:10:00,
2013-08-02 13:13:00,79.4,64.3,29.67,SSW,202,6.0,6.0,60,0.00,,CLR,0.51,915.00,VWS V14.01,2013-08-02 17:13:00,
2013-08-02 13:14:00,79.4,64.3,29.67,SSW,202,0.0,6.0,60,0.00,,CLR,0.51,915.00,VWS V14.01,2013-08-02 17:14:00,
2013-08-02 13:15:00,79.6,66.4,29.67,West,263,0.0,6.0,64,0.00,,CLR,0.51,913.00,VWS V14.01,2013-08-02 17:15:00,
2013-08-02 13:16:00,79.6,65.9,29.67,West,263,0.0,6.0,63,0.00,,CLR,0.51,922.00,VWS V14.01,2013-08-02 17:16:00,
2013-08-02 13:18:00,79.6,64.5,29.66,WNW,292,0.0,7.0,60,0.00,,CLR,0.51,970.00,VWS V14.01,2013-08-02 17:18:00,
2013-08-02 13:19:00,79.6,64.5,29.66,WNW,295,0.0,7.0,60,0.00,,CLR,0.51,970.00,VWS V14.01,2013-08-02 17:19:00,
2013-08-02 13:20:00,79.6,64.0,29.66,WNW,294,0.0,7.0,59,0.00,,CLR,0.51,970.00,VWS V14.01,2013-08-02 17:20:00,
2013-08-02 13:21:00,79.6,64.0,29.66,SSW,208,6.0,7.0,59,0.00,,CLR,0.51,970.00,VWS V14.01,2013-08-02 17:21:00,
2013-08-02 13:24:00,79.8,65.2,29.66,NW,311,0.0,7.0,61,0.00,,CLR,0.51,906.00,VWS V14.01,2013-08-02 17:24:00,
2013-08-02 13:26:00,79.8,64.7,29.66,NW,311,0.0,7.0,60,0.00,,CLR,0.51,908.00,VWS V14.01,2013-08-02 17:26:00,
2013-08-02 13:27:00,79.8,63.7,29.66,WNW,301,6.0,7.0,58,0.00,,CLR,0.51,918.00,VWS V14.01,2013-08-02 17:27:00,
2013-08-02 13:28:00,79.8,65.2,29.66,WSW,244,0.0,8.0,61,0.00,,CLR,0.51,915.00,VWS V14.01,2013-08-02 17:28:00,
2013-08-02 13:29:00,79.8,64.2,29.66,WSW,244,0.0,8.0,59,0.00,,CLR,0.51,915.00,VWS V14.01,2013-08-02 17:29:00,
2013-08-02 13:30:00,79.9,63.8,29.66,SW,236,0.0,8.0,58,0.00,,CLR,0.51,922.00,VWS V14.01,2013-08-02 17:30:00,
2013-08-02 13:31:00,79.9,63.8,29.66,WSW,239,0.0,8.0,58,0.00,,CLR,0.51,931.00,VWS V14.01,2013-08-02 17:31:00,
2013-08-02 13:32:00,80.1,65.0,29.66,WNW,296,3.0,13.0,60,0.00,,CLR,0.51,940.00,VWS V14.01,2013-08-02 17:32:00,
2013-08-02 13:34:00,80.1,63.5,29.66,West,280,0.0,13.0,57,0.00,,CLR,0.51,940.00,VWS V14.01,2013-08-02 17:34:00,
2013-08-02 13:35:00,80.1,64.0,29.66,NNE,18,2.0,13.0,58,0.00,,CLR,0.51,989.00,VWS V14.01,2013-08-02 17:35:00,
2013-08-02 13:37:00,80.1,63.5,29.66,WNW,298,0.0,13.0,57,0.00,,CLR,0.51,911.00,VWS V14.01,2013-08-02 17:37:00,
2013-08-02 13:38:00,80.1,63.5,29.66,WNW,287,0.0,13.0,57,0.00,,CLR,0.51,911.00,VWS V14.01,2013-08-02 17:38:00,
2013-08-02 13:39:00,80.1,64.5,29.66,NW,312,4.0,13.0,59,0.00,,CLR,0.51,917.00,VWS V14.01,2013-08-02 17:39:00,
2013-08-02 13:40:00,80.1,63.0,29.66,NNW,333,0.0,13.0,56,0.00,,CLR,0.51,927.00,VWS V14.01,2013-08-02 17:40:00,
2013-08-02 13:43:00,80.1,64.0,29.66,NNW,336,3.0,13.0,58,0.00,,CLR,0.51,927.00,VWS V14.01,2013-08-02 17:43:00,
2013-08-02 13:44:00,80.3,64.2,29.66,NNW,340,0.0,13.0,58,0.00,,CLR,0.51,927.00,VWS V14.01,2013-08-02 17:44:00,
2013-08-02 13:45:00,80.3,63.2,29.66,NW,322,2.0,13.0,56,0.00,,CLR,0.51,927.00,VWS V14.01,2013-08-02 17:45:00,
2013-08-02 13:48:00,80.1,64.0,29.66,NNW,335,0.0,13.0,58,0.00,,CLR,0.51,208.00,VWS V14.01,2013-08-02 17:48:00,
2013-08-02 13:49:00,80.1,64.5,29.66,NNW,335,0.0,13.0,59,0.00,,CLR,0.51,368.00,VWS V14.01,2013-08-02 17:49:00,
2013-08-02 13:50:00,80.1,63.5,29.66,West,263,1.0,13.0,57,0.00,,CLR,0.51,368.00,VWS V14.01,2013-08-02 17:50:00,
2013-08-02 13:52:00,80.1,64.0,29.66,NW,311,0.0,13.0,58,0.00,,CLR,0.51,926.00,VWS V14.01,2013-08-02 17:52:00,
2013-08-02 13:53:00,80.3,65.2,29.66,SSW,208,0.0,13.0,60,0.00,,CLR,0.51,929.00,VWS V14.01,2013-08-02 17:53:00,
2013-08-02 13:54:00,80.3,63.2,29.66,WNW,285,0.0,13.0,56,0.00,,CLR,0.51,926.00,VWS V14.01,2013-08-02 17:54:00,
2013-08-02 13:55:00,80.3,64.2,29.66,WNW,294,0.0,13.0,58,0.00,,CLR,0.51,910.00,VWS V14.01,2013-08-02 17:55:00,
2013-08-02 13:57:00,80.3,64.7,29.66,NW,308,0.0,13.0,59,0.00,,CLR,0.51,883.00,VWS V14.01,2013-08-02 17:57:00,
2013-08-02 13:58:00,80.3,64.2,29.66,South,179,0.0,13.0,58,0.00,,CLR,0.51,878.00,VWS V14.01,2013-08-02 17:58:00,
2013-08-02 13:59:00,80.3,64.2,29.66,SSE,160,0.0,13.0,58,0.00,,CLR,0.51,878.00,VWS V14.01,2013-08-02 17:59:00,
2013-08-02 14:00:00,80.3,63.2,29.66,West,265,5.0,13.0,56,0.00,,OVC060,0.51,873.00,VWS V14.01,2013-08-02 18:00:00,
2013-08-02 14:03:00,80.3,63.2,29.66,SSW,193,0.0,7.0,56,0.00,,OVC060,0.51,878.00,VWS V14.01,2013-08-02 18:03:00,
2013-08-02 14:04:00,80.3,62.7,29.66,NW,309,0.0,7.0,55,0.00,,OVC060,0.51,880.00,VWS V14.01,2013-08-02 18:04:00,
2013-08-02 14:05:00,80.3,62.7,29.66,WNW,302,3.0,7.0,55,0.00,,OVC060,0.51,876.00,VWS V14.01,2013-08-02 18:05:00,
2013-08-02 14:08:00,80.7,65.1,29.66,West,278,0.0,7.0,59,0.00,,OVC060,0.51,869.00,VWS V14.01,2013-08-02 18:08:00,
2013-08-02 14:09:00,80.7,64.6,29.66,ESE,119,1.0,7.0,58,0.00,,OVC060,0.51,869.00,VWS V14.01,2013-08-02 18:09:00,
2013-08-02 14:10:00,80.7,64.6,29.66,West,274,7.0,8.0,58,0.00,,OVC060,0.51,871.00,VWS V14.01,2013-08-02 18:10:00,
2013-08-02 14:11:00,80.7,63.0,29.66,WNW,289,0.0,8.0,55,0.00,,OVC060,0.51,869.00,VWS V14.01,2013-08-02 18:11:00,
2013-08-02 14:13:00,80.5,62.3,29.66,NW,308,0.0,8.0,54,0.00,,OVC060,0.51,871.00,VWS V14.01,2013-08-02 18:13:00,
2013-08-02 14:15:00,80.5,61.8,29.66,South,174,1.0,8.0,53,0.00,,OVC060,0.51,874.00,VWS V14.01,2013-08-02 18:15:00,
2013-08-02 14:18:00,80.9,63.8,29.65,NW,311,0.0,8.0,56,0.00,,OVC060,0.51,871.00,VWS V14.01,2013-08-02 18:18:00,
2013-08-02 14:20:00,80.9,64.2,29.65,NNW,329,0.0,8.0,57,0.00,,OVC060,0.51,860.00,VWS V14.01,2013-08-02 18:20:00,
2013-08-02 14:21:00,81.1,64.4,29.65,West,278,0.0,8.0,57,0.00,,OVC060,0.51,853.00,VWS V14.01,2013-08-02 18:21:00,
2013-08-02 14:23:00,81.2,64.5,29.65,West,265,1.0,8.0,57,0.00,,OVC060,0.51,860.00,VWS V14.01,2013-08-02 18:23:00,
2013-08-02 14:25:00,81.2,65.0,29.65,NNW,340,0.0,8.0,58,0.00,,OVC060,0.51,860.00,VWS V14.01,2013-08-02 18:25:00,
2013-08-02 14:27:00,81.2,64.0,29.65,WNW,282,0.0,8.0,56,0.00,,OVC060,0.51,859.00,VWS V14.01,2013-08-02 18:27:00,
2013-08-02 14:29:00,81.2,61.4,29.65,West,275,1.0,8.0,51,0.00,,OVC060,0.51,859.00,VWS V14.01,2013-08-02 18:29:00,
2013-08-02 14:30:00,81.2,62.5,29.65,North,0,0.0,8.0,53,0.00,,OVC060,0.51,866.00,VWS V14.01,2013-08-02 18:30:00,
2013-08-02 14:31:00,81.2,64.5,29.65,WSW,258,2.0,8.0,57,0.00,,OVC060,0.51,873.00,VWS V14.01,2013-08-02 18:31:00,
2013-08-02 14:32:00,81.2,64.5,29.65,WNW,298,0.0,3.0,57,0.00,,OVC060,0.51,920.00,VWS V14.01,2013-08-02 18:32:00,
2013-08-02 14:35:00,81.2,64.0,29.65,NNW,328,2.0,7.0,56,0.00,,OVC060,0.51,882.00,VWS V14.01,2013-08-02 18:35:00,
2013-08-02 14:36:00,81.2,63.5,29.65,WNW,289,0.0,7.0,55,0.00,,OVC060,0.51,876.00,VWS V14.01,2013-08-02 18:36:00,
2013-08-02 14:37:00,81.2,63.0,29.65,West,281,0.0,7.0,54,0.00,,OVC060,0.51,873.00,VWS V14.01,2013-08-02 18:37:00,
2013-08-02 14:40:00,81.2,63.5,29.65,NW,316,0.0,7.0,55,0.00,,OVC060,0.51,855.00,VWS V14.01,2013-08-02 18:40:00,
2013-08-02 14:41:00,81.4,64.7,29.65,NW,304,0.0,7.0,57,0.00,,OVC060,0.51,855.00,VWS V14.01,2013-08-02 18:41:00,
2013-08-02 14:42:00,81.2,62.5,29.65,WSW,240,0.0,7.0,53,0.00,,OVC060,0.51,859.00,VWS V14.01,2013-08-02 18:42:00,
2013-08-02 14:45:00,81.4,62.6,29.65,West,261,0.0,7.0,53,0.00,,OVC060,0.51,896.00,VWS V14.01,2013-08-02 18:45:00,
2013-08-02 14:46:00,81.4,62.1,29.65,West,261,0.0,7.0,52,0.00,,OVC060,0.51,896.00,VWS V14.01,2013-08-02 18:46:00,
2013-08-02 14:47:00,81.6,62.8,29.64,WNW,288,5.0,7.0,53,0.00,,OVC060,0.51,878.00,VWS V14.01,2013-08-02 18:47:00,
2013-08-02 14:48:00,81.6,62.8,29.64,West,274,0.0,7.0,53,0.00,,OVC060,0.51,864.00,VWS V14.01,2013-08-02 18:48:00,
2013-08-02 14:50:00,81.6,63.9,29.64,SW,234,0.0,7.0,55,0.00,,OVC060,0.51,853.00,VWS V14.01,2013-08-02 18:50:00,
2013-08-02 14:51:00,81.6,62.8,29.64,WSW,241,0.0,7.0,53,0.00,,OVC060,0.51,862.00,VWS V14.01,2013-08-02 18:51:00,
2013-08-02 14:52:00,81.8,61.9,29.64,WSW,247,1.0,7.0,51,0.00,,OVC060,0.51,857.00,VWS V14.01,2013-08-02 18:52:00,
2013-08-02 14:53:00,81.8,64.1,29.64,WSW,248,0.0,7.0,55,0.00,,OVC060,0.51,846.00,VWS V14.01,2013-08-02 18:53:00,
2013-08-02 14:56:00,82.0,63.2,29.64,West,264,0.0,7.0,53,0.00,,OVC060,0.51,816.00,VWS V14.01,2013-08-02 18:56:00,
2013-08-02 14:57:00,82.0,65.3,29.64,WNW,284,0.0,7.0,57,0.00,,OVC060,0.51,802.00,VWS V14.01,2013-08-02 18:57:00,
2013-08-02 14:58:00,82.0,65.3,29.64,WNW,284,0.0,7.0,57,0.00,,OVC060,0.51,802.00,VWS V14.01,2013-08-02 18:58:00,
2013-08-02 15:00:00,82.2,62.8,29.64,SW,230,5.0,8.0,52,0.00,,OVC050,0.51,816.00,VWS V14.01,2013-08-02 19:00:00,
2013-08-02 15:01:00,82.2,63.4,29.64,West,267,1.0,8.0,53,0.00,,FEW060,0.51,808.00,VWS V14.01,2013-08-02 19:01:00,
2013-08-02 15:02:00,82.2,62.8,29.64,WNW,284,0.0,5.0,52,0.00,,FEW060,0.51,816.00,VWS V14.01,2013-08-02 19:02:00,
2013-08-02 15:03:00,82.2,63.4,29.64,West,274,0.0,5.0,53,0.00,,FEW060,0.51,822.00,VWS V14.01,2013-08-02 19:03:00,
2013-08-02 15:04:00,82.2,63.4,29.64,NNW,329,1.0,7.0,53,0.00,,FEW060,0.51,829.00,VWS V14.01,2013-08-02 19:04:00,
2013-08-02 15:06:00,82.2,62.8,29.64,WNW,291,0.0,7.0,52,0.00,,FEW060,0.51,106.00,VWS V14.01,2013-08-02 19:06:00,
2013-08-02 15:07:00,82.2,62.8,29.64,WNW,302,2.0,7.0,52,0.00,,FEW060,0.51,106.00,VWS V14.01,2013-08-02 19:07:00,
2013-08-02 15:08:00,82.0,60.4,29.64,NW,306,4.0,7.0,48,0.00,,FEW060,0.51,90.00,VWS V14.01,2013-08-02 19:08:00,
2013-08-02 15:09:00,81.8,60.2,29.64,West,275,2.0,7.0,48,0.00,,FEW060,0.51,90.00,VWS V14.01,2013-08-02 19:09:00,
2013-08-02 15:12:00,81.4,61.5,29.64,WNW,302,8.0,13.0,51,0.00,,FEW060,0.51,107.00,VWS V14.01,2013-08-02 19:12:00,
2013-08-02 15:13:00,81.1,61.8,29.64,West,274,3.0,13.0,52,0.00,,FEW060,0.51,890.00,VWS V14.01,2013-08-02 19:13:00,
2013-08-02 15:14:00,81.1,61.8,29.64,WNW,289,1.0,13.0,52,0.00,,FEW060,0.51,867.00,VWS V14.01,2013-08-02 19:14:00,
2013-08-02 15:15:00,80.9,62.2,29.64,West,263,6.0,13.0,53,0.00,,FEW060,0.51,867.00,VWS V14.01,2013-08-02 19:15:00,
2013-08-02 15:18:00,80.5,61.8,29.64,WNW,291,0.0,13.0,53,0.00,,FEW060,0.51,867.00,VWS V14.01,2013-08-02 19:18:00,
2013-08-02 15:19:00,80.5,62.3,29.64,WNW,296,0.0,13.0,54,0.00,,FEW060,0.51,867.00,VWS V14.01,2013-08-02 19:19:00,
2013-08-02 15:20:00,80.5,64.4,29.64,SSW,210,0.0,13.0,58,0.00,,FEW060,0.51,869.00,VWS V14.01,2013-08-02 19:20:00,
2013-08-02 15:23:00,80.5,62.3,29.64,NNW,329,2.0,13.0,54,0.00,,FEW060,0.51,869.00,VWS V14.01,2013-08-02 19:23:00,
2013-08-02 15:24:00,80.5,63.9,29.64,NW,313,0.0,13.0,57,0.00,,FEW060,0.51,866.00,VWS V14.01,2013-08-02 19:24:00,
2013-08-02 15:25:00,80.7,63.0,29.64,WSW,256,0.0,13.0,55,0.00,,FEW060,0.51,845.00,VWS V14.01,2013-08-02 19:25:00,
2013-08-02 15:28:00,80.7,62.5,29.64,West,263,6.0,13.0,54,0.00,,FEW060,0.51,794.00,VWS V14.01,2013-08-02 19:28:00,
2013-08-02 15:29:00,80.7,60.3,29.64,WNW,296,0.0,13.0,50,0.00,,FEW060,0.51,767.00,VWS V14.01,2013-08-02 19:29:00,
2013-08-02 15:30:00,80.7,60.9,29.64,WNW,299,5.0,13.0,51,0.00,,FEW060,0.51,760.00,VWS V14.01,2013-08-02 19:30:00,
2013-08-02 15:34:00,80.9,61.1,29.64,SW,224,0.0,4.0,51,0.00,,FEW060,0.51,741.00,VWS V14.01,2013-08-02 19:34:00,
2013-08-02 15:35:00,80.9,60.0,29.64,ESE,104,0.0,5.0,49,0.00,,FEW060,0.51,737.00,VWS V14.01,2013-08-02 19:35:00,
2013-08-02 15:37:00,80.9,60.0,29.64,NNE,13,0.0,5.0,49,0.00,,FEW060,0.51,725.00,VWS V14.01,2013-08-02 19:37:00,
2013-08-02 15:39:00,81.1,60.7,29.64,West,260,3.0,8.0,50,0.00,,FEW060,0.51,720.00,VWS V14.01,2013-08-02 19:39:00,
2013-08-02 15:40:00,81.1,60.7,29.64,WNW,287,7.0,8.0,50,0.00,,FEW060,0.51,718.00,VWS V14.01,2013-08-02 19:40:00,
2013-08-02 15:42:00,80.9,59.4,29.64,West,274,0.0,10.0,48,0.00,,FEW060,0.51,714.00,VWS V14.01,2013-08-02 19:42:00,
2013-08-02 15:44:00,81.1,61.3,29.64,West,278,0.0,10.0,51,0.00,,FEW060,0.51,707.00,VWS V14.01,2013-08-02 19:44:00,
2013-08-02 15:45:00,81.1,60.7,29.64,West,280,10.0,10.0,50,0.00,,FEW060,0.51,707.00,VWS V14.01,2013-08-02 19:45:00,
2013-08-02 15:46:00,81.1,60.7,29.64,North,0,4.0,10.0,50,0.00,,FEW060,0.51,707.00,VWS V14.01,2013-08-02 19:46:00,
2013-08-02 15:47:00,81.1,60.7,29.64,NW,318,1.0,10.0,50,0.00,,FEW060,0.51,702.00,VWS V14.01,2013-08-02 19:47:00,
2013-08-02 15:50:00,81.1,61.3,29.64,West,274,11.0,11.0,51,0.00,,FEW060,0.51,702.00,VWS V14.01,2013-08-02 19:50:00,
2013-08-02 15:51:00,81.1,60.2,29.64,West,270,0.0,11.0,49,0.00,,FEW060,0.51,697.00,VWS V14.01,2013-08-02 19:51:00,
2013-08-02 15:52:00,81.1,60.2,29.64,NW,322,0.0,11.0,49,0.00,,FEW060,0.51,697.00,VWS V14.01,2013-08-02 19:52:00,
2013-08-02 15:55:00,80.9,56.3,29.64,WNW,298,0.0,16.0,43,0.00,,FEW060,0.51,709.00,VWS V14.01,2013-08-02 19:55:00,
2013-08-02 15:56:00,80.9,57.0,29.64,West,271,3.0,16.0,44,0.00,,FEW060,0.51,709.00,VWS V14.01,2013-08-02 19:56:00,
2013-08-02 15:57:00,80.9,57.0,29.64,West,271,0.0,16.0,44,0.00,,FEW060,0.51,718.00,VWS V14.01,2013-08-02 19:57:00,
2013-08-02 15:59:00,80.7,56.8,29.64,WNW,282,8.0,16.0,44,0.00,,FEW060,0.51,695.00,VWS V14.01,2013-08-02 19:59:00,
2013-08-02 16:00:00,80.5,56.0,29.64,West,275,7.0,16.0,43,0.00,,OVC050,0.51,637.00,VWS V14.01,2013-08-02 20:00:00,
2013-08-02 16:01:00,80.7,56.2,29.64,West,272,3.0,16.0,43,0.00,,CLR,0.51,637.00,VWS V14.01,2013-08-02 20:01:00,
2013-08-02 16:02:00,80.5,56.0,29.64,West,275,7.0,16.0,43,0.00,,CLR,0.51,637.00,VWS V14.01,2013-08-02 20:02:00,
2013-08-02 16:04:00,80.5,57.8,29.64,WNW,289,4.0,7.0,46,0.00,,CLR,0.51,637.00,VWS V14.01,2013-08-02 20:04:00,
2013-08-02 16:06:00,80.5,56.0,29.64,WSW,250,3.0,10.0,43,0.00,,CLR,0.51,278.00,VWS V14.01,2013-08-02 20:06:00,
2013-08-02 16:07:00,80.3,56.4,29.64,West,267,11.0,11.0,44,0.00,,CLR,0.51,278.00,VWS V14.01,2013-08-02 20:07:00,
2013-08-02 16:08:00,80.3,53.8,29.64,West,268,0.0,11.0,40,0.00,,CLR,0.51,278.00,VWS V14.01,2013-08-02 20:08:00,
2013-08-02 16:09:00,80.3,55.8,29.64,South,169,0.0,11.0,43,0.00,,CLR,0.51,278.00,VWS V14.01,2013-08-02 20:09:00,
2013-08-02 16:11:00,80.1,55.0,29.64,WSW,237,5.0,13.0,42,0.00,,CLR,0.51,660.00,VWS V14.01,2013-08-02 20:11:00,
2013-08-02 16:12:00,80.1,56.2,29.64,NW,315,0.0,13.0,44,0.00,,CLR,0.51,656.00,VWS V14.01,2013-08-02 20:12:00,
2013-08-02 16:13:00,80.1,55.6,29.64,West,265,1.0,13.0,43,0.00,,CLR,0.51,653.00,VWS V14.01,2013-08-02 20:13:00,
2013-08-02 16:14:00,79.9,55.4,29.64,NW,312,0.0,13.0,43,0.00,,CLR,0.51,651.00,VWS V14.01,2013-08-02 20:14:00,
2013-08-02 16:17:00,79.9,57.3,29.64,NW,325,1.0,13.0,46,0.00,,CLR,0.51,644.00,VWS V14.01,2013-08-02 20:17:00,
2013-08-02 16:18:00,79.9,56.7,29.64,West,270,0.0,13.0,45,0.00,,CLR,0.51,642.00,VWS V14.01,2013-08-02 20:18:00,
2013-08-02 16:19:00,79.9,55.4,29.64,WSW,237,7.0,16.0,43,0.00,,CLR,0.51,640.00,VWS V14.01,2013-08-02 20:19:00,
2013-08-02 16:23:00,79.9,54.8,29.64,South,174,0.0,16.0,42,0.00,,CLR,0.51,630.00,VWS V14.01,2013-08-02 20:23:00,
2013-08-02 16:24:00,79.9,56.1,29.64,WSW,244,5.0,16.0,44,0.00,,CLR,0.51,626.00,VWS V14.01,2013-08-02 20:24:00,
2013-08-02 16:28:00,79.8,56.6,29.64,NW,322,4.0,16.0,45,0.00,,CLR,0.51,626.00,VWS V14.01,2013-08-02 20:28:00,
2013-08-02 16:29:00,79.8,56.6,29.64,NW,306,0.0,16.0,45,0.00,,CLR,0.51,619.00,VWS V14.01,2013-08-02 20:29:00,
2013-08-02 16:30:00,79.8,56.6,29.64,WNW,289,10.0,16.0,45,0.00,,CLR,0.51,619.00,VWS V14.01,2013-08-02 20:30:00,
2013-08-02 16:33:00,79.8,55.3,29.64,WNW,289,2.0,7.0,43,0.00,,CLR,0.51,619.00,VWS V14.01,2013-08-02 20:33:00,
2013-08-02 16:34:00,79.6,55.2,29.64,West,281,0.0,13.0,43,0.00,,CLR,0.51,604.00,VWS V14.01,2013-08-02 20:34:00,
2013-08-02 16:35:00,79.6,55.8,29.64,West,280,3.0,13.0,44,0.00,,CLR,0.51,604.00,VWS V14.01,2013-08-02 20:35:00,
2013-08-02 16:38:00,79.8,57.8,29.64,West,277,0.0,13.0,47,0.00,,CLR,0.51,591.00,VWS V14.01,2013-08-02 20:38:00,
2013-08-02 16:40:00,79.8,57.2,29.64,WNW,287,0.0,13.0,46,0.00,,CLR,0.51,586.00,VWS V14.01,2013-08-02 20:40:00,
2013-08-02 16:41:00,79.8,59.0,29.64,WNW,296,3.0,13.0,49,0.00,,CLR,0.51,579.00,VWS V14.01,2013-08-02 20:41:00,
2013-08-02 16:44:00,79.8,56.6,29.64,West,281,0.0,13.0,45,0.00,,CLR,0.51,567.00,VWS V14.01,2013-08-02 20:44:00,
2013-08-02 16:45:00,79.8,56.6,29.64,West,281,0.0,13.0,45,0.00,,CLR,0.51,567.00,VWS V14.01,2013-08-02 20:45:00,
2013-08-02 16:46:00,79.8,57.2,29.64,WNW,294,0.0,13.0,46,0.00,,CLR,0.51,561.00,VWS V14.01,2013-08-02 20:46:00,
2013-08-02 16:49:00,79.8,56.6,29.64,NW,319,0.0,13.0,45,0.00,,CLR,0.51,549.00,VWS V14.01,2013-08-02 20:49:00,
2013-08-02 16:50:00,79.8,57.2,29.64,West,277,3.0,13.0,46,0.00,,CLR,0.51,545.00,VWS V14.01,2013-08-02 20:50:00,
2013-08-02 16:51:00,79.8,56.6,29.64,WNW,291,3.0,13.0,45,0.00,,CLR,0.51,544.00,VWS V14.01,2013-08-02 20:51:00,
2013-08-02 16:54:00,79.6,55.8,29.64,WNW,288,3.0,13.0,44,0.00,,CLR,0.51,533.00,VWS V14.01,2013-08-02 20:54:00,
2013-08-02 16:55:00,79.6,55.8,29.64,West,274,0.0,13.0,44,0.00,,CLR,0.51,530.00,VWS V14.01,2013-08-02 20:55:00,
2013-08-02 16:56:00,79.6,55.8,29.64,WNW,302,7.0,13.0,44,0.00,,CLR,0.51,528.00,VWS V14.01,2013-08-02 20:56:00,
2013-08-02 16:57:00,79.6,56.4,29.64,West,275,0.0,13.0,45,0.00,,CLR,0.51,526.00,VWS V14.01,2013-08-02 20:57:00,
2013-08-02 16:59:00,79.4,55.6,29.64,WNW,292,3.0,13.0,44,0.00,,CLR,0.51,517.00,VWS V14.01,2013-08-02 20:59:00,
2013-08-02 17:00:00,79.4,55.6,29.64,West,264,11.0,13.0,44,0.00,,FEW070,0.51,514.00,VWS V14.01,2013-08-02 21:00:00,
2013-08-02 17:01:00,79.2,55.4,29.64,West,272,12.0,13.0,44,0.00,,FEW070,0.51,512.00,VWS V14.01,2013-08-02 21:01:00,
2013-08-02 17:02:00,79.2,55.4,29.64,ENE,71,0.0,13.0,44,0.00,,FEW070,0.51,510.00,VWS V14.01,2013-08-02 21:02:00,
2013-08-02 17:04:00,79.2,55.4,29.64,WNW,288,3.0,6.0,44,0.00,,FEW070,0.51,503.00,VWS V14.01,2013-08-02 21:04:00,
2013-08-02 17:06:00,79.0,55.9,29.64,West,277,0.0,6.0,45,0.00,,FEW070,0.51,503.00,VWS V14.01,2013-08-02 21:06:00,
2013-08-02 17:07:00,79.0,55.2,29.64,NW,304,0.0,6.0,44,0.00,,FEW070,0.51,470.00,VWS V14.01,2013-08-02 21:07:00,
2013-08-02 17:10:00,78.8,56.9,29.64,West,274,0.0,6.0,47,0.00,,FEW070,0.51,491.00,VWS V14.01,2013-08-02 21:10:00,
2013-08-02 17:11:00,78.8,55.7,29.64,West,277,0.0,6.0,45,0.00,,FEW070,0.51,470.00,VWS V14.01,2013-08-02 21:11:00,
2013-08-02 17:12:00,78.8,55.7,29.64,WNW,285,5.0,6.0,45,0.00,,FEW070,0.51,449.00,VWS V14.01,2013-08-02 21:12:00,
2013-08-02 17:13:00,78.8,57.5,29.64,West,263,0.0,6.0,48,0.00,,FEW070,0.51,405.00,VWS V14.01,2013-08-02 21:13:00,
2013-08-02 17:15:00,78.6,56.1,29.64,WSW,246,1.0,7.0,46,0.00,,FEW070,0.51,285.00,VWS V14.01,2013-08-02 21:15:00,
2013-08-02 17:16:00,78.6,56.1,29.64,East,96,0.0,7.0,46,0.00,,FEW070,0.51,285.00,VWS V14.01,2013-08-02 21:16:00,
2013-08-02 17:17:00,78.5,56.6,29.64,WNW,288,0.0,7.0,47,0.00,,FEW070,0.51,239.00,VWS V14.01,2013-08-02 21:17:00,
2013-08-02 17:18:00,78.5,56.6,29.64,West,263,3.0,7.0,47,0.00,,FEW070,0.51,239.00,VWS V14.01,2013-08-02 21:18:00,
2013-08-02 17:21:00,78.3,56.4,29.64,NW,311,0.0,9.0,47,0.00,,FEW070,0.51,354.00,VWS V14.01,2013-08-02 21:21:00,
2013-08-02 17:23:00,78.1,57.4,29.64,WNW,287,0.0,9.0,49,0.00,,FEW070,0.51,315.00,VWS V14.01,2013-08-02 21:23:00,
2013-08-02 17:24:00,78.1,57.4,29.64,West,280,0.0,9.0,49,0.00,,FEW070,0.51,436.00,VWS V14.01,2013-08-02 21:24:00,
2013-08-02 17:27:00,77.9,57.2,29.64,West,275,1.0,9.0,49,0.00,,FEW070,0.51,216.00,VWS V14.01,2013-08-02 21:27:00,
2013-08-02 17:28:00,77.7,57.0,29.64,West,277,0.0,9.0,49,0.00,,FEW070,0.51,216.00,VWS V14.01,2013-08-02 21:28:00,
2013-08-02 17:30:00,77.6,56.4,29.64,West,265,0.0,9.0,48,0.00,,FEW070,0.51,172.00,VWS V14.01,2013-08-02 21:30:00,
2013-08-02 17:32:00,77.6,57.5,29.64,West,277,0.0,9.0,50,0.00,,FEW070,0.51,250.00,VWS V14.01,2013-08-02 21:32:00,
2013-08-02 17:33:00,77.4,56.8,29.64,WSW,251,0.0,8.0,49,0.00,,FEW070,0.51,463.00,VWS V14.01,2013-08-02 21:33:00,
2013-08-02 17:34:00,77.4,56.8,29.64,WSW,257,2.0,8.0,49,0.00,,FEW070,0.51,456.00,VWS V14.01,2013-08-02 21:34:00,
2013-08-02 17:36:00,77.2,56.6,29.64,WNW,294,4.0,8.0,49,0.00,,FEW070,0.51,452.00,VWS V14.01,2013-08-02 21:36:00,
2013-08-02 17:37:00,77.2,56.6,29.64,West,260,3.0,8.0,49,0.00,,FEW070,0.51,445.00,VWS V14.01,2013-08-02 21:37:00,
2013-08-02 17:38:00,77.2,56.6,29.64,WNW,291,0.0,8.0,49,0.00,,FEW070,0.51,436.00,VWS V14.01,2013-08-02 21:38:00,
2013-08-02 17:39:00,77.2,56.6,29.64,West,280,3.0,8.0,49,0.00,,FEW070,0.51,436.00,VWS V14.01,2013-08-02 21:39:00,
2013-08-02 17:41:00,77.0,56.4,29.64,West,274,6.0,11.0,49,0.00,,FEW070,0.51,417.00,VWS V14.01,2013-08-02 21:41:00,
2013-08-02 17:42:00,77.0,56.4,29.64,NW,304,0.0,11.0,49,0.00,,FEW070,0.51,413.00,VWS V14.01,2013-08-02 21:42:00,
2013-08-02 17:44:00,76.8,55.7,29.64,West,280,0.0,11.0,48,0.00,,FEW070,0.51,398.00,VWS V14.01,2013-08-02 21:44:00,
2013-08-02 17:47:00,76.8,56.2,29.65,WNW,302,0.0,11.0,49,0.00,,FEW070,0.51,364.00,VWS V14.01,2013-08-02 21:47:00,
2013-08-02 17:49:00,76.7,56.7,29.65,West,272,0.0,11.0,50,0.00,,FEW070,0.51,46.00,VWS V14.01,2013-08-02 21:49:00,
2013-08-02 17:50:00,76.7,57.8,29.65,West,278,0.0,11.0,52,0.00,,FEW070,0.51,44.00,VWS V14.01,2013-08-02 21:50:00,
2013-08-02 17:52:00,76.7,57.2,29.65,West,272,1.0,11.0,51,0.00,,FEW070,0.51,42.00,VWS V14.01,2013-08-02 21:52:00,
2013-08-02 17:53:00,76.7,57.2,29.65,WSW,248,1.0,11.0,51,0.00,,FEW070,0.51,40.00,VWS V14.01,2013-08-02 21:53:00,
2013-08-02 17:54:00,76.5,58.1,29.65,WNW,284,0.0,11.0,53,0.00,,FEW070,0.51,39.00,VWS V14.01,2013-08-02 21:54:00,
2013-08-02 17:55:00,76.5,56.5,29.65,WNW,282,0.0,11.0,50,0.00,,FEW070,0.51,39.00,VWS V14.01,2013-08-02 21:55:00,
2013-08-02 17:56:00,76.5,56.5,29.65,West,277,0.0,11.0,50,0.00,,FEW070,0.51,39.00,VWS V14.01,2013-08-02 21:56:00,
2013-08-02 17:58:00,76.3,57.4,29.65,NNW,336,3.0,11.0,52,0.00,,FEW070,0.51,39.00,VWS V14.01,2013-08-02 21:58:00,
2013-08-02 17:59:00,76.3,57.4,29.65,WSW,253,3.0,11.0,52,0.00,,FEW070,0.51,40.00,VWS V14.01,2013-08-02 21:59:00,
2013-08-02 18:00:00,76.3,56.9,29.65,WSW,258,0.0,11.0,51,0.00,,BKN090,0.51,44.00,VWS V14.01,2013-08-02 22:00:00,
2013-08-02 18:01:00,76.3,57.4,29.65,West,265,0.0,11.0,52,0.00,,BKN090,0.51,46.00,VWS V14.01,2013-08-02 22:01:00,
2013-08-02 18:04:00,76.1,57.2,29.66,West,280,0.0,5.0,52,0.00,,BKN090,0.51,44.00,VWS V14.01,2013-08-02 22:04:00,
2013-08-02 18:05:00,76.0,57.1,29.66,NW,322,0.0,5.0,52,0.00,,BKN090,0.51,42.00,VWS V14.01,2013-08-02 22:05:00,
2013-08-02 18:06:00,76.0,57.1,29.66,NW,322,0.0,5.0,52,0.00,,BKN090,0.51,42.00,VWS V14.01,2013-08-02 22:06:00,
2013-08-02 18:09:00,75.8,55.3,29.66,North,359,4.0,11.0,49,0.00,,BKN090,0.51,42.00,VWS V14.01,2013-08-02 22:09:00,
2013-08-02 18:10:00,75.8,55.3,29.66,NNW,333,0.0,11.0,49,0.00,,BKN090,0.51,42.00,VWS V14.01,2013-08-02 22:10:00,
2013-08-02 18:12:00,75.6,55.7,29.66,NW,316,0.0,11.0,50,0.00,,BKN090,0.51,37.00,VWS V14.01,2013-08-02 22:12:00,
2013-08-02 18:14:00,75.6,56.2,29.66,West,277,0.0,11.0,51,0.00,,BKN090,0.51,37.00,VWS V14.01,2013-08-02 22:14:00,
2013-08-02 18:15:00,75.6,57.3,29.66,West,275,0.0,11.0,53,0.00,,BKN090,0.51,42.00,VWS V14.01,2013-08-02 22:15:00,
2013-08-02 18:18:00,75.4,57.1,29.66,West,277,0.0,11.0,53,0.00,,BKN090,0.51,42.00,VWS V14.01,2013-08-02 22:18:00,
2013-08-02 18:19:00,75.4,57.1,29.66,West,280,0.0,11.0,53,0.00,,BKN090,0.51,62.00,VWS V14.01,2013-08-02 22:19:00,
2013-08-02 18:20:00,75.4,58.1,29.66,West,275,0.0,11.0,55,0.00,,BKN090,0.51,62.00,VWS V14.01,2013-08-02 22:20:00,
2013-08-02 18:23:00,75.3,57.5,29.66,West,281,0.0,11.0,54,0.00,,BKN090,0.51,67.00,VWS V14.01,2013-08-02 22:23:00,
2013-08-02 18:24:00,75.3,57.5,29.66,West,280,0.0,11.0,54,0.00,,BKN090,0.51,67.00,VWS V14.01,2013-08-02 22:24:00,
2013-08-02 18:25:00,75.1,57.3,29.66,West,280,0.0,11.0,54,0.00,,BKN090,0.51,67.00,VWS V14.01,2013-08-02 22:25:00,
2013-08-02 18:28:00,74.9,57.2,29.66,WSW,247,0.0,11.0,54,0.00,,BKN090,0.51,65.00,VWS V14.01,2013-08-02 22:28:00,
2013-08-02 18:29:00,74.9,57.7,29.66,WSW,247,0.0,11.0,55,0.00,,BKN090,0.51,65.00,VWS V14.01,2013-08-02 22:29:00,
2013-08-02 18:30:00,74.9,58.2,29.66,WSW,254,0.0,11.0,56,0.00,,BKN090,0.51,62.00,VWS V14.01,2013-08-02 22:30:00,
2013-08-02 18:31:00,74.9,57.7,29.66,WSW,254,0.0,11.0,55,0.00,,BKN090,0.51,62.00,VWS V14.01,2013-08-02 22:31:00,
2013-08-02 18:34:00,74.7,58.0,29.66,WSW,257,0.0,1.0,56,0.00,,BKN090,0.51,56.00,VWS V14.01,2013-08-02 22:34:00,
2013-08-02 18:36:00,74.6,57.9,29.66,WSW,251,0.0,1.0,56,0.00,,BKN090,0.51,58.00,VWS V14.01,2013-08-02 22:36:00,
2013-08-02 18:37:00,74.6,57.9,29.66,WSW,251,0.0,1.0,56,0.00,,BKN090,0.51,62.00,VWS V14.01,2013-08-02 22:37:00,
2013-08-02 18:39:00,74.4,58.7,29.66,WSW,251,0.0,1.0,58,0.00,,BKN090,0.51,62.00,VWS V14.01,2013-08-02 22:39:00,
2013-08-02 18:42:00,74.4,59.2,29.66,WSW,251,0.0,1.0,59,0.00,,BKN090,0.51,48.00,VWS V14.01,2013-08-02 22:42:00,
2013-08-02 18:43:00,74.2,59.4,29.66,WSW,251,0.0,1.0,60,0.00,,BKN090,0.51,46.00,VWS V14.01,2013-08-02 22:43:00,
2013-08-02 18:44:00,74.2,59.0,29.66,WSW,251,0.0,1.0,59,0.00,,BKN090,0.51,44.00,VWS V14.01,2013-08-02 22:44:00,
2013-08-02 18:45:00,74.2,59.0,29.66,WSW,251,0.0,1.0,59,0.00,,BKN090,0.51,44.00,VWS V14.01,2013-08-02 22:45:00,
2013-08-02 18:47:00,74.0,59.2,29.67,WNW,287,1.0,2.0,60,0.00,,BKN090,0.51,48.00,VWS V14.01,2013-08-02 22:47:00,
2013-08-02 18:48:00,74.0,59.2,29.67,WNW,287,0.0,2.0,60,0.00,,BKN090,0.51,48.00,VWS V14.01,2013-08-02 22:48:00,
2013-08-02 18:50:00,73.9,58.7,29.67,WNW,288,0.0,2.0,59,0.00,,BKN090,0.51,48.00,VWS V14.01,2013-08-02 22:50:00,
2013-08-02 18:53:00,73.7,58.5,29.67,WNW,288,0.0,2.0,59,0.00,,BKN090,0.51,49.00,VWS V14.01,2013-08-02 22:53:00,
2013-08-02 18:55:00,73.5,59.2,29.67,WNW,288,0.0,2.0,61,0.00,,BKN090,0.51,49.00,VWS V14.01,2013-08-02 22:55:00,
2013-08-02 18:58:00,73.5,58.8,29.67,WNW,288,0.0,2.0,60,0.00,,BKN090,0.51,49.00,VWS V14.01,2013-08-02 22:58:00,
2013-08-02 19:00:00,73.3,58.6,29.67,WNW,288,0.0,2.0,60,0.00,,CLR,0.51,49.00,VWS V14.01,2013-08-02 23:00:00,
2013-08-02 19:03:00,73.2,59.4,29.67,WNW,291,0.0,2.0,62,0.00,,CLR,0.51,49.00,VWS V14.01,2013-08-02 23:03:00,
2013-08-02 19:04:00,73.0,58.3,29.67,WNW,291,0.0,2.0,60,0.00,,CLR,0.51,49.00,VWS V14.01,2013-08-02 23:04:00,
2013-08-02 19:05:00,73.0,58.8,29.67,WNW,291,0.0,2.0,61,0.00,,CLR,0.51,51.00,VWS V14.01,2013-08-02 23:05:00,
2013-08-02 19:07:00,73.0,58.8,29.67,WNW,291,0.0,2.0,61,0.00,,CLR,0.51,51.00,VWS V14.01,2013-08-02 23:07:00,
2013-08-02 19:09:00,72.8,58.6,29.67,WNW,291,0.0,2.0,61,0.00,,CLR,0.51,51.00,VWS V14.01,2013-08-02 23:09:00,
2013-08-02 19:10:00,72.8,59.0,29.67,WNW,291,0.0,2.0,62,0.00,,CLR,0.51,46.00,VWS V14.01,2013-08-02 23:10:00,
2013-08-02 19:11:00,72.8,59.0,29.67,WNW,291,0.0,2.0,62,0.00,,CLR,0.51,46.00,VWS V14.01,2013-08-02 23:11:00,
2013-08-02 19:12:00,72.7,59.4,29.67,WNW,291,0.0,2.0,63,0.00,,CLR,0.51,46.00,VWS V14.01,2013-08-02 23:12:00,
2013-08-02 19:14:00,72.7,59.4,29.67,West,280,0.0,2.0,63,0.00,,CLR,0.51,35.00,VWS V14.01,2013-08-02 23:14:00,
2013-08-02 19:16:00,72.5,58.8,29.67,West,280,0.0,2.0,62,0.00,,CLR,0.51,35.00,VWS V14.01,2013-08-02 23:16:00,
2013-08-02 19:17:00,72.3,58.1,29.67,West,280,0.0,2.0,61,0.00,,CLR,0.51,35.00,VWS V14.01,2013-08-02 23:17:00,
2013-08-02 19:19:00,72.3,59.0,29.67,West,280,0.0,2.0,63,0.00,,CLR,0.51,39.00,VWS V14.01,2013-08-02 23:19:00,
2013-08-02 19:20:00,72.3,59.0,29.67,West,280,0.0,2.0,63,0.00,,CLR,0.51,39.00,VWS V14.01,2013-08-02 23:20:00,
2013-08-02 19:21:00,72.3,59.0,29.67,West,280,0.0,2.0,63,0.00,,CLR,0.51,39.00,VWS V14.01,2013-08-02 23:21:00,
2013-08-02 19:22:00,72.1,59.7,29.67,West,280,0.0,2.0,65,0.00,,CLR,0.51,42.00,VWS V14.01,2013-08-02 23:22:00,
2013-08-02 19:23:00,72.1,59.7,29.67,West,280,0.0,2.0,65,0.00,,CLR,0.51,42.00,VWS V14.01,2013-08-02 23:23:00,
2013-08-02 19:24:00,72.1,60.1,29.67,West,280,0.0,2.0,66,0.00,,CLR,0.51,42.00,VWS V14.01,2013-08-02 23:24:00,
2013-08-02 19:26:00,72.0,59.6,29.67,WSW,248,0.0,2.0,65,0.00,,CLR,0.51,42.00,VWS V14.01,2013-08-02 23:26:00,
2013-08-02 19:27:00,72.0,59.6,29.67,WSW,248,0.0,2.0,65,0.00,,CLR,0.51,42.00,VWS V14.01,2013-08-02 23:27:00,
2013-08-02 19:28:00,72.0,59.2,29.67,WSW,248,0.0,2.0,64,0.00,,CLR,0.51,42.00,VWS V14.01,2013-08-02 23:28:00,
2013-08-02 19:29:00,72.0,59.6,29.67,WSW,248,0.0,2.0,65,0.00,,CLR,0.51,42.00,VWS V14.01,2013-08-02 23:29:00,
2013-08-02 19:30:00,71.8,59.4,29.68,WSW,248,0.0,2.0,65,0.00,,OVC050,0.51,44.00,VWS V14.01,2013-08-02 23:30:00,
2013-08-02 19:32:00,71.8,59.4,29.68,WSW,248,0.0,2.0,65,0.00,,CLR,0.51,44.00,VWS V14.01,2013-08-02 23:32:00,
2013-08-02 19:34:00,71.8,59.8,29.68,WSW,248,0.0,0.0,66,0.00,,CLR,0.51,39.00,VWS V14.01,2013-08-02 23:34:00,
2013-08-02 19:35:00,71.8,59.8,29.68,WSW,248,0.0,0.0,66,0.00,,CLR,0.51,39.00,VWS V14.01,2013-08-02 23:35:00,
2013-08-02 19:37:00,71.8,59.0,29.68,WSW,248,0.0,0.0,64,0.00,,CLR,0.51,39.00,VWS V14.01,2013-08-02 23:37:00,
2013-08-02 19:38:00,71.6,59.2,29.68,WSW,248,0.0,0.0,65,0.00,,CLR,0.51,28.00,VWS V14.01,2013-08-02 23:38:00,
2013-08-02 19:40:00,71.6,59.7,29.68,WSW,248,0.0,0.0,66,0.00,,CLR,0.51,28.00,VWS V14.01,2013-08-02 23:40:00,
2013-08-02 19:41:00,71.6,59.2,29.68,WSW,248,0.0,0.0,65,0.00,,CLR,0.51,28.00,VWS V14.01,2013-08-02 23:41:00,
2013-08-02 19:42:00,71.6,59.7,29.68,WSW,248,0.0,0.0,66,0.00,,CLR,0.51,28.00,VWS V14.01,2013-08-02 23:42:00,
2013-08-02 19:43:00,71.5,59.6,29.68,WSW,248,0.0,0.0,66,0.00,,CLR,0.51,23.00,VWS V14.01,2013-08-02 23:43:00,
2013-08-02 19:45:00,71.5,60.0,29.68,WSW,248,0.0,0.0,67,0.00,,CLR,0.51,23.00,VWS V14.01,2013-08-02 23:45:00,
2013-08-02 19:47:00,71.5,60.4,29.68,WSW,248,0.0,0.0,68,0.00,,CLR,0.51,16.00,VWS V14.01,2013-08-02 23:47:00,
2013-08-02 19:48:00,71.5,60.4,29.68,WSW,248,0.0,0.0,68,0.00,,CLR,0.51,16.00,VWS V14.01,2013-08-02 23:48:00,
2013-08-02 19:49:00,71.3,60.2,29.68,WSW,248,0.0,0.0,68,0.00,,CLR,0.51,16.00,VWS V14.01,2013-08-02 23:49:00,
2013-08-02 19:50:00,71.3,59.8,29.68,WSW,248,0.0,0.0,67,0.00,,CLR,0.51,16.00,VWS V14.01,2013-08-02 23:50:00,
2013-08-02 19:52:00,71.3,60.2,29.68,WSW,248,0.0,0.0,68,0.00,,CLR,0.51,12.00,VWS V14.01,2013-08-02 23:52:00,
2013-08-02 19:53:00,71.3,60.2,29.68,WSW,248,0.0,0.0,68,0.00,,CLR,0.51,12.00,VWS V14.01,2013-08-02 23:53:00,
2013-08-02 19:54:00,71.1,60.0,29.68,WSW,248,0.0,0.0,68,0.00,,CLR,0.51,12.00,VWS V14.01,2013-08-02 23:54:00,
2013-08-02 19:57:00,70.9,59.4,29.68,WSW,248,0.0,0.0,67,0.00,,CLR,0.51,11.00,VWS V14.01,2013-08-02 23:57:00,
2013-08-02 19:58:00,70.9,59.8,29.68,WSW,248,0.0,0.0,68,0.00,,CLR,0.51,11.00,VWS V14.01,2013-08-02 23:58:00,
2013-08-02 19:59:00,70.9,59.8,29.68,WSW,248,0.0,0.0,68,0.00,,CLR,0.51,7.00,VWS V14.01,2013-08-02 23:59:00,
2013-08-02 20:00:00,70.8,59.7,29.69,WSW,248,0.0,0.0,68,0.00,,OVC050,0.51,7.00,VWS V14.01,2013-08-03 00:00:00,
2013-08-02 20:03:00,70.8,59.7,29.69,WSW,248,0.0,0.0,68,0.00,,CLR,0.51,7.00,VWS V14.01,2013-08-03 00:03:00,
2013-08-02 20:05:00,70.6,59.5,29.69,WSW,248,0.0,0.0,68,0.00,,CLR,0.51,0.00,VWS V14.01,2013-08-03 00:05:00,
2013-08-02 20:08:00,70.6,60.0,29.69,WSW,248,0.0,0.0,69,0.00,,CLR,0.51,0.00,VWS V14.01,2013-08-03 00:08:00,
2013-08-02 20:09:00,70.4,59.8,29.69,WSW,248,0.0,0.0,69,0.00,,CLR,0.51,0.00,VWS V14.01,2013-08-03 00:09:00,
2013-08-02 20:10:00,70.4,59.3,29.69,WSW,248,0.0,1.0,68,0.00,,CLR,0.51,0.00,VWS V14.01,2013-08-03 00:10:00,
2013-08-02 20:13:00,70.3,59.2,29.69,WSW,248,0.0,1.0,68,0.00,,CLR,0.51,0.00,VWS V14.01,2013-08-03 00:13:00,
2013-08-02 20:14:00,70.1,58.7,29.69,WSW,248,0.0,1.0,67,0.00,,CLR,0.51,0.00,VWS V14.01,2013-08-03 00:14:00,
2013-08-02 20:15:00,70.1,59.1,29.69,WSW,248,0.0,1.0,68,0.00,,CLR,0.51,0.00,VWS V14.01,2013-08-03 00:15:00,
2013-08-02 20:16:00,69.9,58.9,29.70,WSW,250,0.0,1.0,68,0.00,,CLR,0.51,0.00,VWS V14.01,2013-08-03 00:16:00,
2013-08-02 20:18:00,69.9,58.9,29.70,WSW,250,0.0,1.0,68,0.00,,CLR,0.51,0.00,VWS V14.01,2013-08-03 00:18:00,
2013-08-02 20:19:00,69.9,58.9,29.70,WSW,250,0.0,1.0,68,0.00,,CLR,0.51,0.00,VWS V14.01,2013-08-03 00:19:00,
2013-08-02 20:20:00,69.8,59.2,29.70,WSW,250,0.0,1.0,69,0.00,,CLR,0.51,0.00,VWS V14.01,2013-08-03 00:20:00,
2013-08-02 20:21:00,69.8,59.2,29.70,WSW,250,0.0,1.0,69,0.00,,CLR,0.51,0.00,VWS V14.01,2013-08-03 00:21:00,
2013-08-02 20:22:00,69.8,59.2,29.70,WSW,250,0.0,1.0,69,0.00,,CLR,0.51,0.00,VWS V14.01,2013-08-03 00:22:00,
2013-08-02 20:23:00,69.6,59.0,29.70,South,175,0.0,1.0,69,0.00,,CLR,0.51,0.00,VWS V14.01,2013-08-03 00:23:00,
2013-08-02 20:24:00,69.6,59.0,29.70,South,175,0.0,1.0,69,0.00,,CLR,0.51,0.00,VWS V14.01,2013-08-03 00:24:00,
2013-08-02 20:25:00,69.4,58.4,29.70,South,175,0.0,1.0,68,0.00,,CLR,0.51,0.00,VWS V14.01,2013-08-03 00:25:00,
2013-08-02 20:26:00,69.4,58.4,29.70,South,175,0.0,1.0,68,0.00,,CLR,0.51,0.00,VWS V14.01,2013-08-03 00:26:00,
2013-08-02 20:28:00,69.4,58.4,29.70,South,176,0.0,1.0,68,0.00,,CLR,0.51,0.00,VWS V14.01,2013-08-03 00:28:00,
2013-08-02 20:29:00,69.3,58.7,29.70,South,176,0.0,1.0,69,0.00,,CLR,0.51,0.00,VWS V14.01,2013-08-03 00:29:00,
2013-08-02 20:30:00,69.1,58.5,29.70,South,176,0.0,1.0,69,0.00,,OVC050,0.51,0.00,VWS V14.01,2013-08-03 00:30:00,
2013-08-02 20:31:00,69.3,58.7,29.70,South,176,0.0,1.0,69,0.00,,CLR,0.51,0.00,VWS V14.01,2013-08-03 00:31:00,
2013-08-02 20:32:00,69.1,58.5,29.70,South,176,0.0,1.0,69,0.00,,CLR,0.51,0.00,VWS V14.01,2013-08-03 00:32:00,
2013-08-02 20:33:00,69.1,58.5,29.70,SW,233,0.0,2.0,69,0.00,,CLR,0.51,0.00,VWS V14.01,2013-08-03 00:33:00,
2013-08-02 20:34:00,69.1,58.5,29.70,SW,233,0.0,2.0,69,0.00,,CLR,0.51,0.00,VWS V14.01,2013-08-03 00:34:00,
2013-08-02 20:35:00,68.9,57.9,29.70,SW,233,0.0,2.0,68,0.00,,CLR,0.51,0.00,VWS V14.01,2013-08-03 00:35:00,
2013-08-02 20:37:00,68.8,58.2,29.70,WNW,282,0.0,2.0,69,0.00,,CLR,0.51,0.00,VWS V14.01,2013-08-03 00:37:00,
2013-08-02 20:38:00,68.8,58.2,29.70,WNW,284,0.0,2.0,69,0.00,,CLR,0.51,0.00,VWS V14.01,2013-08-03 00:38:00,
2013-08-02 20:39:00,68.8,58.6,29.70,WNW,284,0.0,2.0,70,0.00,,CLR,0.51,0.00,VWS V14.01,2013-08-03 00:39:00,
2013-08-02 20:40:00,68.6,58.0,29.70,West,278,0.0,5.0,69,0.00,,CLR,0.51,0.00,VWS V14.01,2013-08-03 00:40:00,
2013-08-02 20:42:00,68.4,57.8,29.70,West,278,0.0,5.0,69,0.00,,CLR,0.51,0.00,VWS V14.01,2013-08-03 00:42:00,
2013-08-02 20:44:00,68.4,57.8,29.70,West,274,0.0,5.0,69,0.00,,CLR,0.51,0.00,VWS V14.01,2013-08-03 00:44:00,
2013-08-02 20:45:00,68.3,57.8,29.70,West,274,0.0,5.0,69,0.00,,CLR,0.51,0.00,VWS V14.01,2013-08-03 00:45:00,
2013-08-02 20:48:00,68.3,57.8,29.71,West,274,0.0,5.0,69,0.00,,CLR,0.51,0.00,VWS V14.01,2013-08-03 00:48:00,
2013-08-02 20:49:00,68.1,58.0,29.71,WSW,258,0.0,5.0,70,0.00,,CLR,0.51,0.00,VWS V14.01,2013-08-03 00:49:00,
2013-08-02 20:50:00,68.1,58.0,29.71,West,265,0.0,5.0,70,0.00,,CLR,0.51,0.00,VWS V14.01,2013-08-03 00:50:00,
2013-08-02 20:51:00,68.1,58.0,29.71,West,265,0.0,5.0,70,0.00,,CLR,0.51,0.00,VWS V14.01,2013-08-03 00:51:00,
2013-08-02 20:53:00,67.9,57.4,29.71,West,265,0.0,5.0,69,0.00,,CLR,0.51,0.00,VWS V14.01,2013-08-03 00:53:00,
2013-08-02 20:54:00,67.9,57.8,29.71,West,267,0.0,5.0,70,0.00,,CLR,0.51,0.00,VWS V14.01,2013-08-03 00:54:00,
2013-08-02 20:56:00,67.8,57.7,29.71,West,267,0.0,5.0,70,0.00,,CLR,0.51,0.00,VWS V14.01,2013-08-03 00:56:00,
2013-08-02 20:57:00,67.8,57.7,29.71,West,267,0.0,5.0,70,0.00,,CLR,0.51,0.00,VWS V14.01,2013-08-03 00:57:00,
2013-08-02 20:58:00,67.8,57.7,29.71,West,267,0.0,5.0,70,0.00,,CLR,0.51,0.00,VWS V14.01,2013-08-03 00:58:00,
2013-08-02 21:00:00,67.8,57.7,29.71,West,268,0.0,5.0,70,0.00,,CLR,0.51,0.00,VWS V14.01,2013-08-03 01:00:00,
2013-08-02 21:02:00,67.6,57.5,29.71,West,270,0.0,5.0,70,0.00,,CLR,0.51,0.00,VWS V14.01,2013-08-03 01:02:00,
2013-08-02 21:04:00,67.6,57.9,29.71,West,260,0.0,0.0,71,0.00,,CLR,0.51,0.00,VWS V14.01,2013-08-03 01:04:00,
2013-08-02 21:05:00,67.6,57.5,29.71,West,260,0.0,0.0,70,0.00,,CLR,0.51,0.00,VWS V14.01,2013-08-03 01:05:00,
2013-08-02 21:07:00,67.4,57.3,29.71,West,260,0.0,0.0,70,0.00,,CLR,0.51,0.00,VWS V14.01,2013-08-03 01:07:00,
2013-08-02 21:08:00,67.4,57.3,29.71,West,260,0.0,0.0,70,0.00,,CLR,0.51,0.00,VWS V14.01,2013-08-03 01:08:00,
2013-08-02 21:09:00,67.4,57.7,29.71,West,260,0.0,0.0,71,0.00,,CLR,0.51,0.00,VWS V14.01,2013-08-03 01:09:00,
2013-08-02 21:10:00,67.4,57.7,29.71,West,260,0.0,0.0,71,0.00,,CLR,0.51,0.00,VWS V14.01,2013-08-03 01:10:00,
2013-08-02 21:11:00,67.4,57.7,29.71,WSW,254,0.0,0.0,71,0.00,,CLR,0.51,0.00,VWS V14.01,2013-08-03 01:11:00,
2013-08-02 21:13:00,67.4,57.7,29.71,WSW,254,0.0,0.0,71,0.00,,CLR,0.51,0.00,VWS V14.01,2013-08-03 01:13:00,
2013-08-02 21:15:00,67.3,57.6,29.71,WSW,256,0.0,0.0,71,0.00,,CLR,0.51,0.00,VWS V14.01,2013-08-03 01:15:00,
2013-08-02 21:16:00,67.3,57.6,29.72,WSW,256,0.0,0.0,71,0.00,,CLR,0.51,0.00,VWS V14.01,2013-08-03 01:16:00,
2013-08-02 21:18:00,67.3,57.6,29.72,WSW,256,0.0,0.0,71,0.00,,CLR,0.51,0.00,VWS V14.01,2013-08-03 01:18:00,
2013-08-02 21:20:00,67.1,57.8,29.72,WSW,256,0.0,0.0,72,0.00,,CLR,0.51,0.00,VWS V14.01,2013-08-03 01:20:00,
2013-08-02 21:21:00,67.1,57.8,29.72,WSW,256,0.0,0.0,72,0.00,,CLR,0.51,0.00,VWS V14.01,2013-08-03 01:21:00,
2013-08-02 21:23:00,66.9,57.2,29.72,WSW,256,0.0,0.0,71,0.00,,CLR,0.51,0.00,VWS V14.01,2013-08-03 01:23:00,
2013-08-02 21:26:00,66.9,57.2,29.72,WSW,256,0.0,0.0,71,0.00,,CLR,0.51,0.00,VWS V14.01,2013-08-03 01:26:00,
2013-08-02 21:27:00,66.9,57.6,29.72,WSW,256,0.0,0.0,72,0.00,,CLR,0.51,0.00,VWS V14.01,2013-08-03 01:27:00,
2013-08-02 21:28:00,66.8,57.5,29.72,WSW,254,0.0,0.0,72,0.00,,CLR,0.51,0.00,VWS V14.01,2013-08-03 01:28:00,
2013-08-02 21:29:00,66.8,57.5,29.72,WSW,254,0.0,0.0,72,0.00,,CLR,0.51,0.00,VWS V14.01,2013-08-03 01:29:00,
2013-08-02 21:30:00,66.8,57.5,29.72,WSW,256,0.0,0.0,72,0.00,,OVC050,0.51,0.00,VWS V14.01,2013-08-03 01:30:00,
2013-08-02 21:31:00,66.8,57.5,29.72,WSW,256,0.0,0.0,72,0.00,,CLR,0.51,0.00,VWS V14.01,2013-08-03 01:31:00,
2013-08-02 21:32:00,66.8,57.5,29.72,WSW,256,0.0,0.0,72,0.00,,CLR,0.51,0.00,VWS V14.01,2013-08-03 01:32:00,
2013-08-02 21:33:00,66.8,57.5,29.72,WSW,256,0.0,0.0,72,0.00,,CLR,0.51,0.00,VWS V14.01,2013-08-03 01:33:00,
2013-08-02 21:35:00,66.6,57.3,29.72,WSW,256,0.0,0.0,72,0.00,,CLR,0.51,0.00,VWS V14.01,2013-08-03 01:35:00,
2013-08-02 21:37:00,66.6,57.7,29.72,WSW,256,0.0,0.0,73,0.00,,CLR,0.51,0.00,VWS V14.01,2013-08-03 01:37:00,
2013-08-02 21:38:00,66.6,57.7,29.72,WSW,256,0.0,0.0,73,0.00,,CLR,0.51,0.00,VWS V14.01,2013-08-03 01:38:00,
2013-08-02 21:39:00,66.4,57.1,29.72,WSW,254,0.0,0.0,72,0.00,,CLR,0.51,0.00,VWS V14.01,2013-08-03 01:39:00,
2013-08-02 21:40:00,66.4,57.1,29.72,WSW,256,0.0,0.0,72,0.00,,CLR,0.51,0.00,VWS V14.01,2013-08-03 01:40:00,
2013-08-02 21:42:00,66.4,57.5,29.72,WSW,254,0.0,0.0,73,0.00,,CLR,0.51,0.00,VWS V14.01,2013-08-03 01:42:00,
2013-08-02 21:43:00,66.4,57.5,29.72,WSW,248,0.0,0.0,73,0.00,,CLR,0.51,0.00,VWS V14.01,2013-08-03 01:43:00,
2013-08-02 21:44:00,66.3,57.8,29.72,WSW,254,0.0,0.0,74,0.00,,CLR,0.51,0.00,VWS V14.01,2013-08-03 01:44:00,
2013-08-02 21:45:00,66.3,57.8,29.72,WSW,254,0.0,0.0,74,0.00,,CLR,0.51,0.00,VWS V14.01,2013-08-03 01:45:00,
2013-08-02 21:47:00,66.3,57.4,29.72,WSW,254,0.0,0.0,73,0.00,,CLR,0.51,0.00,VWS V14.01,2013-08-03 01:47:00,
2013-08-02 21:48:00,66.3,57.4,29.72,WSW,254,0.0,0.0,73,0.00,,CLR,0.51,0.00,VWS V14.01,2013-08-03 01:48:00,
2013-08-02 21:49:00,66.1,57.6,29.72,WSW,254,0.0,0.0,74,0.00,,CLR,0.51,0.00,VWS V14.01,2013-08-03 01:49:00,
2013-08-02 21:50:00,66.1,57.6,29.72,WSW,254,0.0,0.0,74,0.00,,CLR,0.51,0.00,VWS V14.01,2013-08-03 01:50:00,
2013-08-02 21:52:00,66.1,57.2,29.72,WSW,253,0.0,0.0,73,0.00,,CLR,0.51,0.00,VWS V14.01,2013-08-03 01:52:00,
2013-08-02 21:53:00,66.1,57.6,29.72,WSW,253,0.0,0.0,74,0.00,,CLR,0.51,0.00,VWS V14.01,2013-08-03 01:53:00,
2013-08-02 21:54:00,66.1,57.6,29.72,WSW,253,0.0,0.0,74,0.00,,CLR,0.51,0.00,VWS V14.01,2013-08-03 01:54:00,
2013-08-02 21:55:00,66.0,57.5,29.72,WSW,253,0.0,0.0,74,0.00,,CLR,0.51,0.00,VWS V14.01,2013-08-03 01:55:00,
2013-08-02 21:58:00,66.0,57.5,29.72,WSW,253,0.0,0.0,74,0.00,,CLR,0.51,0.00,VWS V14.01,2013-08-03 01:58:00,
2013-08-02 21:59:00,65.8,57.3,29.72,WSW,237,0.0,0.0,74,0.00,,CLR,0.51,0.00,VWS V14.01,2013-08-03 01:59:00,
2013-08-02 22:00:00,65.8,57.3,29.72,WSW,237,0.0,0.0,74,0.00,,SCT110,0.51,0.00,VWS V14.01,2013-08-03 02:00:00,
2013-08-02 22:03:00,65.8,57.3,29.72,WSW,237,0.0,0.0,74,0.00,,SCT110,0.51,0.00,VWS V14.01,2013-08-03 02:03:00,
2013-08-02 22:04:00,65.6,57.1,29.72,WSW,237,0.0,0.0,74,0.00,,SCT110,0.51,0.00,VWS V14.01,2013-08-03 02:04:00,
2013-08-02 22:05:00,65.6,57.1,29.72,WSW,237,0.0,0.0,74,0.00,,SCT110,0.51,0.00,VWS V14.01,2013-08-03 02:05:00,
2013-08-02 22:08:00,65.6,57.1,29.72,SW,232,0.0,0.0,74,0.00,,SCT110,0.51,0.00,VWS V14.01,2013-08-03 02:08:00,
2013-08-02 22:09:00,65.6,57.1,29.72,WSW,237,0.0,0.0,74,0.00,,SCT110,0.51,0.00,VWS V14.01,2013-08-03 02:09:00,
2013-08-02 22:10:00,65.5,57.0,29.72,WSW,237,0.0,0.0,74,0.00,,SCT110,0.51,0.00,VWS V14.01,2013-08-03 02:10:00,
2013-08-02 22:13:00,65.5,57.4,29.72,WSW,237,0.0,0.0,75,0.00,,SCT110,0.51,0.00,VWS V14.01,2013-08-03 02:13:00,
2013-08-02 22:14:00,65.5,57.4,29.72,WSW,237,0.0,0.0,75,0.00,,SCT110,0.51,0.00,VWS V14.01,2013-08-03 02:14:00,
2013-08-02 22:16:00,65.3,57.2,29.72,WSW,237,0.0,0.0,75,0.00,,SCT110,0.51,0.00,VWS V14.01,2013-08-03 02:16:00,
2013-08-02 22:19:00,65.3,57.5,29.71,WSW,237,0.0,0.0,76,0.00,,SCT110,0.51,0.00,VWS V14.01,2013-08-03 02:19:00,
2013-08-02 22:21:00,65.2,57.5,29.71,WSW,237,0.0,0.0,76,0.00,,SCT110,0.51,0.00,VWS V14.01,2013-08-03 02:21:00,
2013-08-02 22:22:00,65.2,57.5,29.71,WSW,237,0.0,0.0,76,0.00,,SCT110,0.51,0.00,VWS V14.01,2013-08-03 02:22:00,
2013-08-02 22:24:00,65.2,57.8,29.71,WSW,237,0.0,0.0,77,0.00,,SCT110,0.51,0.00,VWS V14.01,2013-08-03 02:24:00,
2013-08-02 22:25:00,65.2,57.8,29.71,WSW,237,0.0,0.0,77,0.00,,SCT110,0.51,0.00,VWS V14.01,2013-08-03 02:25:00,
2013-08-02 22:26:00,65.0,57.6,29.71,WSW,237,0.0,0.0,77,0.00,,SCT110,0.51,0.00,VWS V14.01,2013-08-03 02:26:00,
2013-08-02 22:27:00,65.0,57.6,29.71,WSW,237,0.0,0.0,77,0.00,,SCT110,0.51,0.00,VWS V14.01,2013-08-03 02:27:00,
2013-08-02 22:29:00,65.0,58.0,29.71,WSW,237,0.0,0.0,78,0.00,,SCT110,0.51,0.00,VWS V14.01,2013-08-03 02:29:00,
2013-08-02 22:30:00,65.0,58.0,29.71,WSW,237,0.0,0.0,78,0.00,,SCT110,0.51,0.00,VWS V14.01,2013-08-03 02:30:00,
2013-08-02 22:31:00,64.8,57.8,29.72,WSW,239,0.0,0.0,78,0.00,,SCT110,0.51,0.00,VWS V14.01,2013-08-03 02:31:00,
2013-08-02 22:32:00,64.8,57.8,29.72,WSW,239,0.0,0.0,78,0.00,,SCT110,0.51,0.00,VWS V14.01,2013-08-03 02:32:00,
2013-08-02 22:34:00,64.8,58.1,29.72,WSW,239,0.0,0.0,79,0.00,,SCT110,0.51,0.00,VWS V14.01,2013-08-03 02:34:00,
2013-08-02 22:35:00,64.7,58.0,29.72,WSW,239,0.0,0.0,79,0.00,,SCT110,0.51,0.00,VWS V14.01,2013-08-03 02:35:00,
2013-08-02 22:36:00,64.7,58.0,29.72,WSW,239,0.0,0.0,79,0.00,,SCT110,0.51,0.00,VWS V14.01,2013-08-03 02:36:00,
2013-08-02 22:38:00,64.7,57.7,29.72,WSW,239,0.0,0.0,78,0.00,,SCT110,0.51,0.00,VWS V14.01,2013-08-03 02:38:00,
2013-08-02 22:40:00,64.5,57.5,29.72,WSW,239,0.0,0.0,78,0.00,,SCT110,0.51,0.00,VWS V14.01,2013-08-03 02:40:00,
2013-08-02 22:41:00,64.5,57.5,29.72,WSW,239,0.0,0.0,78,0.00,,SCT110,0.51,0.00,VWS V14.01,2013-08-03 02:41:00,
2013-08-02 22:43:00,64.5,57.8,29.72,WSW,239,0.0,0.0,79,0.00,,SCT110,0.51,0.00,VWS V14.01,2013-08-03 02:43:00,
2013-08-02 22:45:00,64.5,57.8,29.72,WSW,239,0.0,0.0,79,0.00,,SCT110,0.51,0.00,VWS V14.01,2013-08-03 02:45:00,
2013-08-02 22:46:00,64.5,57.8,29.72,WSW,239,0.0,0.0,79,0.00,,SCT110,0.51,0.00,VWS V14.01,2013-08-03 02:46:00,
2013-08-02 22:47:00,64.3,57.7,29.72,WSW,239,0.0,0.0,79,0.00,,SCT110,0.51,0.00,VWS V14.01,2013-08-03 02:47:00,
2013-08-02 22:48:00,64.3,58.0,29.72,WSW,239,0.0,0.0,80,0.00,,SCT110,0.51,0.00,VWS V14.01,2013-08-03 02:48:00,
2013-08-02 22:50:00,64.3,58.0,29.72,WSW,239,0.0,0.0,80,0.00,,SCT110,0.51,0.00,VWS V14.01,2013-08-03 02:50:00,
2013-08-02 22:51:00,64.3,58.0,29.72,WSW,239,0.0,0.0,80,0.00,,SCT110,0.51,0.00,VWS V14.01,2013-08-03 02:51:00,
2013-08-02 22:52:00,64.3,58.0,29.72,WSW,239,0.0,0.0,80,0.00,,SCT110,0.51,0.00,VWS V14.01,2013-08-03 02:52:00,
2013-08-02 22:53:00,64.3,58.0,29.72,WSW,239,0.0,0.0,80,0.00,,SCT110,0.51,0.00,VWS V14.01,2013-08-03 02:53:00,
2013-08-02 22:56:00,64.2,57.9,29.72,WSW,239,0.0,0.0,80,0.00,,SCT110,0.51,0.00,VWS V14.01,2013-08-03 02:56:00,
2013-08-02 22:57:00,64.2,57.9,29.72,WSW,239,0.0,0.0,80,0.00,,SCT110,0.51,0.00,VWS V14.01,2013-08-03 02:57:00,
2013-08-02 22:58:00,64.2,57.9,29.72,WSW,239,0.0,0.0,80,0.00,,SCT110,0.51,0.00,VWS V14.01,2013-08-03 02:58:00,
2013-08-02 22:59:00,64.2,57.9,29.72,WSW,239,0.0,0.0,80,0.00,,SCT110,0.51,0.00,VWS V14.01,2013-08-03 02:59:00,
2013-08-02 23:00:00,64.0,57.7,29.72,WSW,239,0.0,0.0,80,0.00,,OVC050,0.51,0.00,VWS V14.01,2013-08-03 03:00:00,
2013-08-02 23:02:00,64.0,57.7,29.72,WSW,239,0.0,0.0,80,0.00,,FEW110,0.51,0.00,VWS V14.01,2013-08-03 03:02:00,
2013-08-02 23:03:00,64.0,57.7,29.72,WSW,239,0.0,0.0,80,0.00,,FEW110,0.51,0.00,VWS V14.01,2013-08-03 03:03:00,
2013-08-02 23:04:00,64.0,57.7,29.72,WSW,239,0.0,0.0,80,0.00,,FEW110,0.51,0.00,VWS V14.01,2013-08-03 03:04:00,
2013-08-02 23:07:00,63.9,57.6,29.72,South,186,0.0,0.0,80,0.00,,FEW110,0.51,0.00,VWS V14.01,2013-08-03 03:07:00,
2013-08-02 23:08:00,63.9,57.6,29.72,South,186,0.0,0.0,80,0.00,,FEW110,0.51,0.00,VWS V14.01,2013-08-03 03:08:00,
2013-08-02 23:10:00,63.9,58.0,29.72,South,186,0.0,0.0,81,0.00,,FEW110,0.51,0.00,VWS V14.01,2013-08-03 03:10:00,
2013-08-02 23:12:00,63.9,58.0,29.72,South,186,0.0,0.0,81,0.00,,FEW110,0.51,0.00,VWS V14.01,2013-08-03 03:12:00,
2013-08-02 23:13:00,63.9,57.6,29.72,South,186,0.0,0.0,80,0.00,,FEW110,0.51,0.00,VWS V14.01,2013-08-03 03:13:00,
2013-08-02 23:14:00,63.7,57.4,29.72,South,186,0.0,0.0,80,0.00,,FEW110,0.51,0.00,VWS V14.01,2013-08-03 03:14:00,
2013-08-02 23:16:00,63.7,57.4,29.72,South,186,0.0,0.0,80,0.00,,FEW110,0.51,0.00,VWS V14.01,2013-08-03 03:16:00,
2013-08-02 23:17:00,63.7,57.4,29.71,South,186,0.0,0.0,80,0.00,,FEW110,0.51,0.00,VWS V14.01,2013-08-03 03:17:00,
2013-08-02 23:18:00,63.7,57.4,29.71,South,186,0.0,0.0,80,0.00,,FEW110,0.51,0.00,VWS V14.01,2013-08-03 03:18:00,
2013-08-02 23:20:00,63.7,57.4,29.71,South,186,0.0,0.0,80,0.00,,FEW110,0.51,0.00,VWS V14.01,2013-08-03 03:20:00,
2013-08-02 23:22:00,63.7,57.4,29.71,South,186,0.0,0.0,80,0.00,,FEW110,0.51,0.00,VWS V14.01,2013-08-03 03:22:00,
2013-08-02 23:23:00,63.7,57.4,29.71,South,186,0.0,0.0,80,0.00,,FEW110,0.51,0.00,VWS V14.01,2013-08-03 03:23:00,
2013-08-02 23:24:00,63.7,57.4,29.71,South,186,0.0,0.0,80,0.00,,FEW110,0.51,0.00,VWS V14.01,2013-08-03 03:24:00,
2013-08-02 23:26:00,63.5,57.2,29.71,South,186,0.0,0.0,80,0.00,,FEW110,0.51,0.00,VWS V14.01,2013-08-03 03:26:00,
2013-08-02 23:27:00,63.5,57.2,29.71,South,186,0.0,0.0,80,0.00,,FEW110,0.51,0.00,VWS V14.01,2013-08-03 03:27:00,
2013-08-02 23:28:00,63.5,57.2,29.71,South,186,0.0,0.0,80,0.00,,FEW110,0.51,0.00,VWS V14.01,2013-08-03 03:28:00,
2013-08-02 23:29:00,63.5,57.2,29.71,South,186,0.0,0.0,80,0.00,,FEW110,0.51,0.00,VWS V14.01,2013-08-03 03:29:00,
2013-08-02 23:30:00,63.5,57.2,29.71,South,186,0.0,1.0,80,0.00,,OVC050,0.51,0.00,VWS V14.01,2013-08-03 03:30:00,
2013-08-02 23:32:00,63.5,57.2,29.71,South,186,0.0,0.0,80,0.00,,FEW110,0.51,0.00,VWS V14.01,2013-08-03 03:32:00,
2013-08-02 23:33:00,63.5,57.2,29.71,South,186,0.0,0.0,80,0.00,,FEW110,0.51,0.00,VWS V14.01,2013-08-03 03:33:00,
2013-08-02 23:34:00,63.5,57.2,29.71,South,186,0.0,0.0,80,0.00,,FEW110,0.51,0.00,VWS V14.01,2013-08-03 03:34:00,
2013-08-02 23:37:00,63.5,57.2,29.71,South,186,0.0,0.0,80,0.00,,FEW110,0.51,0.00,VWS V14.01,2013-08-03 03:37:00,
2013-08-02 23:38:00,63.5,57.2,29.71,South,186,0.0,0.0,80,0.00,,FEW110,0.51,0.00,VWS V14.01,2013-08-03 03:38:00,
2013-08-02 23:39:00,63.5,57.2,29.71,South,186,0.0,0.0,80,0.00,,FEW110,0.51,0.00,VWS V14.01,2013-08-03 03:39:00,
2013-08-02 23:40:00,63.5,57.2,29.71,South,186,0.0,0.0,80,0.00,,FEW110,0.51,0.00,VWS V14.01,2013-08-03 03:40:00,
2013-08-02 23:42:00,63.5,57.2,29.71,South,186,0.0,0.0,80,0.00,,FEW110,0.51,0.00,VWS V14.01,2013-08-03 03:42:00,
2013-08-02 23:44:00,63.5,57.2,29.71,South,186,0.0,0.0,80,0.00,,FEW110,0.51,0.00,VWS V14.01,2013-08-03 03:44:00,
2013-08-02 23:45:00,63.5,56.9,29.71,South,186,0.0,0.0,79,0.00,,FEW110,0.51,0.00,VWS V14.01,2013-08-03 03:45:00,
2013-08-02 23:47:00,63.5,57.2,29.71,South,186,0.0,0.0,80,0.00,,FEW110,0.51,0.00,VWS V14.01,2013-08-03 03:47:00,
2013-08-02 23:48:00,63.5,57.2,29.71,South,186,0.0,0.0,80,0.00,,FEW110,0.51,0.00,VWS V14.01,2013-08-03 03:48:00,
2013-08-02 23:49:00,63.5,57.2,29.71,South,186,0.0,0.0,80,0.00,,FEW110,0.51,0.00,VWS V14.01,2013-08-03 03:49:00,
2013-08-02 23:51:00,63.5,57.2,29.71,South,186,0.0,0.0,80,0.00,,FEW110,0.51,0.00,VWS V14.01,2013-08-03 03:51:00,
2013-08-02 23:53:00,63.5,57.2,29.71,South,186,0.0,0.0,80,0.00,,FEW110,0.51,0.00,VWS V14.01,2013-08-03 03:53:00,
2013-08-02 23:54:00,63.5,57.2,29.71,South,186,0.0,0.0,80,0.00,,FEW110,0.51,0.00,VWS V14.01,2013-08-03 03:54:00,
2013-08-02 23:56:00,63.4,57.1,29.71,SSW,195,0.0,0.0,80,0.00,,FEW110,0.51,0.00,VWS V14.01,2013-08-03 03:56:00,
2013-08-02 23:59:00,63.4,57.1,29.71,South,186,0.0,0.0,80,0.00,,FEW110,0.51,0.00,VWS V14.01,2013-08-03 03:59:00,